WA4BPS Weather Reports


Display with metric or nautical units.
time (UTC)temp
F
wind
direction
speed
MPH
gust
MPH
rain 1hr
in
rain 24hr
in
rain mn
in
humidity
%
barometer
mb
20260508124002 53 294 9.0 12.0 0.00 0.00 0.00 69 1013.9
20260508123841 53 257 7.0 11.0 0.00 0.00 0.00 69 1013.9
20260508123740 53 189 7.0 9.0 0.00 0.00 0.00 69 1013.9
20260508123638 53 326 6.0 9.0 0.00 0.00 0.00 69 1013.9
20260508123557 53 222 4.0 9.0 0.00 0.00 0.00 69 1013.9
20260508123433 53 312 7.0 9.0 0.00 0.00 0.00 69 1013.9
20260508123336 53 271 6.0 9.0 0.00 0.00 0.00 69 1013.9
20260508123235 52 332 7.0 9.0 0.00 0.00 0.00 69 1013.9
20260508123205 52 174 6.0 9.0 0.00 0.00 0.00 69 1013.9
20260508123042 52 176 6.0 10.0 0.00 0.00 0.00 69 1013.9
20260508122940 52 329 6.0 10.0 0.00 0.00 0.00 69 1013.9
20260508122837 52 332 6.0 10.0 0.00 0.00 0.00 69 1014.1
20260508122737 52 230 6.0 10.0 0.00 0.00 0.00 69 1014.1
20260508122640 52 291 6.0 10.0 0.00 0.00 0.00 69 1014.1
20260508122537 52 312 6.0 10.0 0.00 0.00 0.00 69 1014.1
20260508122455 52 272 7.0 10.0 0.00 0.00 0.00 69 1014.1
20260508122332 52 313 5.0 10.0 0.00 0.00 0.00 70 1014.1
20260508122231 52 260 5.0 11.0 0.00 0.00 0.00 70 1014.1
20260508122129 52 302 4.0 11.0 0.00 0.00 0.00 70 1014.1
20260508122028 52 261 8.0 11.0 0.00 0.00 0.00 70 1014.1
20260508121930 51 157 7.0 11.0 0.00 0.00 0.00 71 1014.1
20260508121848 51 246 6.0 11.0 0.00 0.00 0.00 71 1014.1
20260508121726 51 332 7.0 11.0 0.00 0.00 0.00 71 1014.1
20260508121656 51 275 6.0 11.0 0.00 0.00 0.00 71 1014.1
20260508121533 51 332 5.0 11.0 0.00 0.00 0.00 70 1014.1
20260508121431 51 329 6.0 11.0 0.00 0.00 0.00 71 1014.1
20260508121328 51 160 7.0 11.0 0.00 0.00 0.00 71 1013.9
20260508121248 51 112 7.0 10.0 0.00 0.00 0.00 71 1013.9
20260508121129 51 264 5.0 10.0 0.00 0.00 0.00 71 1013.9
20260508121032 51 289 7.0 10.0 0.00 0.00 0.00 70 1013.9
20260508120929 51 264 7.0 10.0 0.00 0.00 0.00 71 1013.9
20260508120830 51 316 7.0 10.0 0.00 0.00 0.00 70 1013.9
20260508120748 51 326 6.0 9.0 0.00 0.00 0.00 71 1013.9
20260508120626 51 131 7.0 9.0 0.00 0.00 0.00 71 1013.9
20260508120529 51 326 7.0 9.0 0.00 0.00 0.00 71 1013.9
20260508120427 51 333 5.0 8.0 0.00 0.00 0.00 71 1013.9
20260508120329 51 181 6.0 8.0 0.00 0.00 0.00 71 1013.9
20260508120227 51 200 7.0 9.0 0.00 0.00 0.00 71 1013.9
20260508120158 51 130 6.0 9.0 0.00 0.00 0.00 71 1013.9
20260508120034 51 145 5.0 9.0 0.00 0.00 0.00 71 1013.9
20260508115933 51 260 7.0 10.0 0.00 0.00 0.00 71 1013.9
20260508115831 51 128 7.0 10.0 0.00 0.00 0.00 72 1013.7
20260508115729 51 274 6.0 10.0 0.00 0.00 0.00 72 1013.7
20260508115652 51 227 6.0 10.0 0.00 0.00 0.00 72 1013.7
20260508115530 51 222 6.0 10.0 0.00 0.00 0.00 72 1013.7
20260508115428 51 233 7.0 10.0 0.00 0.00 0.00 72 1013.7
20260508115327 51 330 6.0 10.0 0.00 0.00 0.00 72 1013.7
20260508115225 51 322 6.0 10.0 0.00 0.00 0.00 72 1013.7
20260508115143 51 301 7.0 10.0 0.00 0.00 0.00 72 1013.7
20260508115042 51 322 7.0 10.0 0.00 0.00 0.00 72 1013.7
20260508114924 51 107 6.0 8.0 0.00 0.00 0.00 72 1013.7
20260508114846 51 332 6.0 8.0 0.00 0.00 0.00 72 1013.7
20260508114742 51 123 6.0 8.0 0.00 0.00 0.00 72 1013.7
20260508114713 51 332 6.0 8.0 0.00 0.00 0.00 71 1013.7
20260508114530 51 330 6.0 8.0 0.00 0.00 0.00 72 1013.7
20260508114430 51 258 7.0 8.0 0.00 0.00 0.00 72 1013.7
20260508114327 51 138 7.0 8.0 0.00 0.00 0.00 72 1013.6
20260508114227 51 329 6.0 10.0 0.00 0.00 0.00 71 1013.6
20260508114128 51 332 7.0 10.0 0.00 0.00 0.00 71 1013.6
20260508114027 51 264 6.0 10.0 0.00 0.00 0.00 71 1013.6
20260508113924 51 278 5.0 10.0 0.00 0.00 0.00 71 1013.6
20260508113843 51 265 5.0 10.0 0.00 0.00 0.00 71 1013.6
20260508113741 51 178 6.0 10.0 0.00 0.00 0.00 71 1013.6
20260508113700 51 332 5.0 10.0 0.00 0.00 0.00 70 1013.6
20260508113537 51 277 5.0 10.0 0.00 0.00 0.00 70 1013.6
20260508113439 51 292 6.0 10.0 0.00 0.00 0.00 70 1013.6
20260508113340 51 272 7.0 10.0 0.00 0.00 0.00 70 1013.6
20260508113237 51 169 7.0 10.0 0.00 0.00 0.00 70 1013.6
20260508113207 51 128 6.0 10.0 0.00 0.00 0.00 70 1013.6
20260508113043 51 258 7.0 10.0 0.00 0.00 0.00 70 1013.6
20260508112941 51 243 6.0 9.0 0.00 0.00 0.00 71 1013.6
20260508112840 51 154 7.0 8.0 0.00 0.00 0.00 71 1013.3
20260508112800 51 248 6.0 8.0 0.00 0.00 0.00 70 1013.3
20260508112656 51 203 7.0 8.0 0.00 0.00 0.00 70 1013.3
20260508112559 51 241 7.0 8.0 0.00 0.00 0.00 70 1013.3
20260508112434 51 100 6.0 9.0 0.00 0.00 0.00 70 1013.3
20260508112336 51 298 7.0 9.0 0.00 0.00 0.00 70 1013.3
20260508112236 51 328 6.0 9.0 0.00 0.00 0.00 70 1013.3
20260508112134 51 275 6.0 9.0 0.00 0.00 0.00 70 1013.3
20260508112033 51 224 7.0 10.0 0.00 0.00 0.00 70 1013.3
20260508111930 51 160 6.0 10.0 0.00 0.00 0.00 70 1013.3
20260508111828 51 199 6.0 10.0 0.00 0.00 0.00 70 1013.3
20260508111740 51 195 7.0 10.0 0.00 0.00 0.00 70 1013.3
20260508111650 51 251 7.0 10.0 0.00 0.00 0.00 70 1013.3
20260508111528 51 144 6.0 10.0 0.00 0.00 0.00 70 1013.3
20260508111425 51 323 6.0 10.0 0.00 0.00 0.00 69 1013.3
20260508111324 51 268 6.0 10.0 0.00 0.00 0.00 70 1012.8
20260508111243 51 270 7.0 10.0 0.00 0.00 0.00 70 1012.8
20260508111142 51 267 7.0 10.0 0.00 0.00 0.00 69 1012.8
20260508111101 51 215 6.0 10.0 0.00 0.00 0.00 69 1012.8
20260508111001 51 330 7.0 10.0 0.00 0.00 0.00 69 1012.8
20260508110839 51 325 6.0 10.0 0.00 0.00 0.00 69 1012.8
20260508110738 51 298 6.0 10.0 0.00 0.00 0.00 69 1012.8
20260508110635 51 284 7.0 10.0 0.00 0.00 0.00 69 1012.8
20260508110534 51 202 7.0 10.0 0.00 0.00 0.00 69 1012.8
20260508110432 51 136 7.0 10.0 0.00 0.00 0.00 69 1012.8
20260508110330 51 332 6.0 10.0 0.00 0.00 0.00 69 1012.8
20260508110252 51 277 6.0 10.0 0.00 0.00 0.00 69 1012.8
20260508110202 51 136 6.0 10.0 0.00 0.00 0.00 69 1012.8
20260508110039 51 251 6.0 10.0 0.00 0.00 0.00 69 1012.8
20260508105957 51 179 7.0 10.0 0.00 0.00 0.00 69 1012.8
20260508105834 51 280 6.0 10.0 0.00 0.00 0.00 69 1012.6
20260508105734 51 265 7.0 10.0 0.00 0.00 0.00 69 1012.6
20260508105635 51 316 6.0 10.0 0.00 0.00 0.00 69 1012.6
20260508105533 51 263 7.0 10.0 0.00 0.00 0.00 69 1012.6
20260508105436 51 323 7.0 10.0 0.00 0.00 0.00 69 1012.6
20260508105334 51 296 8.0 10.0 0.00 0.00 0.00 69 1012.6
20260508105252 51 213 7.0 10.0 0.00 0.00 0.00 69 1012.6
20260508105130 51 130 7.0 10.0 0.00 0.00 0.00 69 1012.6
20260508105049 51 164 6.0 11.0 0.00 0.00 0.00 69 1012.6
20260508104926 51 330 7.0 11.0 0.00 0.00 0.00 69 1012.6
20260508104823 51 145 6.0 11.0 0.00 0.00 0.00 69 1012.6
20260508104738 51 302 8.0 11.0 0.00 0.00 0.00 69 1012.6
20260508104645 51 232 8.0 11.0 0.00 0.00 0.00 68 1012.6
20260508104544 51 306 7.0 11.0 0.00 0.00 0.00 68 1012.6
20260508104442 51 196 8.0 11.0 0.00 0.00 0.00 68 1012.6
20260508104341 51 254 8.0 11.0 0.00 0.00 0.00 69 1012.4
20260508104239 51 157 8.0 11.0 0.00 0.00 0.00 68 1012.4
20260508104137 51 176 7.0 10.0 0.00 0.00 0.00 68 1012.4
20260508104037 51 131 6.0 10.0 0.00 0.00 0.00 68 1012.4
20260508103940 51 332 6.0 10.0 0.00 0.00 0.00 68 1012.4
20260508103838 51 209 7.0 10.0 0.00 0.00 0.00 68 1012.4
20260508103737 51 328 6.0 10.0 0.00 0.00 0.00 68 1012.4
20260508103634 51 208 5.0 10.0 0.00 0.00 0.00 68 1012.4
20260508103553 51 230 6.0 10.0 0.00 0.00 0.00 67 1012.4
20260508103431 51 227 7.0 10.0 0.00 0.00 0.00 67 1012.4
20260508103330 51 143 7.0 10.0 0.00 0.00 0.00 67 1012.4
20260508103240 51 162 8.0 12.0 0.00 0.00 0.00 67 1012.4
20260508103154 51 305 7.0 12.0 0.00 0.00 0.00 67 1012.4
20260508103030 51 308 7.0 12.0 0.00 0.00 0.00 67 1012.4
20260508102929 51 260 6.0 12.0 0.00 0.00 0.00 67 1012.4
20260508102827 51 186 7.0 12.0 0.00 0.00 0.00 67 1012.3
20260508102745 51 203 7.0 12.0 0.00 0.00 0.00 67 1012.3
20260508102642 51 208 6.0 12.0 0.00 0.00 0.00 66 1012.3
20260508102540 51 93 6.0 12.0 0.00 0.00 0.00 67 1012.3
20260508102438 51 319 8.0 12.0 0.00 0.00 0.00 66 1012.3
20260508102339 51 315 9.0 12.0 0.00 0.00 0.00 66 1012.3
20260508102239 51 209 8.0 13.0 0.00 0.00 0.00 66 1012.3
20260508102138 51 258 6.0 14.0 0.00 0.00 0.00 66 1012.3
20260508102036 52 199 7.0 14.0 0.00 0.00 0.00 66 1012.3
20260508101934 52 172 5.0 14.0 0.00 0.00 0.00 65 1012.3
20260508101832 52 154 7.0 14.0 0.00 0.00 0.00 65 1012.3
20260508101803 52 281 9.0 14.0 0.00 0.00 0.00 66 1012.3
20260508101649 52 195 10.0 14.0 0.00 0.00 0.00 65 1012.3
20260508101531 52 195 6.0 14.0 0.00 0.00 0.00 65 1012.3
20260508101429 52 145 9.0 14.0 0.00 0.00 0.00 64 1012.3
20260508101347 52 219 10.0 14.0 0.00 0.00 0.00 66 1012.2
20260508101226 52 154 8.0 12.0 0.00 0.00 0.00 67 1012.2
20260508101125 52 107 6.0 12.0 0.00 0.00 0.00 67 1012.2
20260508101043 52 172 7.0 12.0 0.00 0.00 0.00 66 1012.2
20260508100941 52 138 7.0 11.0 0.00 0.00 0.00 66 1012.2
20260508100900 52 195 7.0 13.0 0.00 0.00 0.00 66 1012.2
20260508100742 52 141 7.0 13.0 0.00 0.00 0.00 66 1012.2
20260508100639 52 261 8.0 13.0 0.00 0.00 0.00 65 1012.2
20260508100538 52 301 9.0 13.0 0.00 0.00 0.00 65 1012.2
20260508100436 52 250 7.0 13.0 0.00 0.00 0.00 65 1012.2
20260508100335 52 320 8.0 13.0 0.00 0.00 0.00 65 1012.2
20260508100303 52 230 7.0 13.0 0.00 0.00 0.00 65 1012.2
20260508100152 52 147 6.0 13.0 0.00 0.00 0.00 65 1012.2
20260508100032 52 175 8.0 13.0 0.00 0.00 0.00 64 1012.2
20260508095930 52 189 7.0 13.0 0.00 0.00 0.00 64 1012.2
20260508095830 52 198 7.0 13.0 0.00 0.00 0.00 63 1012.1
20260508095729 52 219 6.0 13.0 0.00 0.00 0.00 63 1012.1
20260508095626 52 175 7.0 13.0 0.00 0.00 0.00 64 1012.1
20260508095524 52 205 8.0 13.0 0.00 0.00 0.00 63 1012.1
20260508095443 52 264 8.0 13.0 0.00 0.00 0.00 64 1012.1
20260508095325 52 144 7.0 13.0 0.00 0.00 0.00 65 1012.1
20260508095243 52 184 7.0 13.0 0.00 0.00 0.00 65 1012.1
20260508095140 51 176 9.0 13.0 0.00 0.00 0.00 63 1012.1
20260508095039 51 198 7.0 13.0 0.00 0.00 0.00 63 1012.1
20260508094937 51 102 8.0 13.0 0.00 0.00 0.00 64 1012.1
20260508094836 51 109 8.0 14.0 0.00 0.00 0.00 64 1012.1
20260508094736 51 278 7.0 14.0 0.00 0.00 0.00 64 1012.1
20260508094709 51 315 9.0 14.0 0.00 0.00 0.00 63 1012.1
20260508094525 51 220 8.0 14.0 0.00 0.00 0.00 62 1012.1
20260508094443 51 72 8.0 14.0 0.00 0.00 0.00 63 1012.1
20260508094341 51 123 6.0 14.0 0.00 0.00 0.00 65 1011.9
20260508094259 51 113 7.0 14.0 0.00 0.00 0.00 65 1011.9
20260508094136 51 328 9.0 14.0 0.00 0.00 0.00 64 1011.9
20260508094034 51 313 11.0 14.0 0.00 0.00 0.00 64 1011.9
20260508093953 51 217 9.0 13.0 0.00 0.00 0.00 64 1011.9
20260508093834 51 114 10.0 13.0 0.00 0.00 0.00 63 1011.9
20260508093735 51 134 10.0 13.0 0.00 0.00 0.00 64 1011.9
20260508093634 51 96 8.0 13.0 0.00 0.00 0.00 64 1011.9
20260508093533 51 205 9.0 13.0 0.00 0.00 0.00 65 1011.9
20260508093432 51 133 10.0 13.0 0.00 0.00 0.00 64 1011.9
20260508093330 51 265 6.0 13.0 0.00 0.00 0.00 65 1011.9
20260508093229 51 215 7.0 13.0 0.00 0.00 0.00 64 1011.9
20260508093200 51 128 8.0 13.0 0.00 0.00 0.00 64 1011.9
20260508093041 51 102 8.0 13.0 0.00 0.00 0.00 65 1011.9
20260508092939 51 210 7.0 13.0 0.00 0.00 0.00 65 1011.9
20260508092837 51 289 8.0 12.0 0.00 0.00 0.00 65 1012.0
20260508092735 51 203 8.0 12.0 0.00 0.00 0.00 66 1012.0
20260508092634 51 261 8.0 12.0 0.00 0.00 0.00 65 1012.0
20260508092533 51 186 8.0 12.0 0.00 0.00 0.00 65 1012.0
20260508092435 51 199 6.0 11.0 0.00 0.00 0.00 64 1012.0
20260508092333 51 199 8.0 11.0 0.00 0.00 0.00 63 1012.0
20260508092251 51 234 9.0 13.0 0.00 0.00 0.00 65 1012.0
20260508092128 51 206 10.0 13.0 0.00 0.00 0.00 65 1012.0
20260508092027 51 333 7.0 13.0 0.00 0.00 0.00 65 1012.0
20260508091945 51 291 7.0 13.0 0.00 0.00 0.00 65 1012.0
20260508091843 51 107 7.0 13.0 0.00 0.00 0.00 65 1012.0
20260508091732 51 110 9.0 13.0 0.00 0.00 0.00 65 1012.0
20260508091646 51 224 9.0 13.0 0.00 0.00 0.00 65 1012.0
20260508091524 51 195 8.0 13.0 0.00 0.00 0.00 66 1012.0
20260508091427 51 247 9.0 13.0 0.00 0.00 0.00 66 1012.0
20260508091326 51 128 7.0 13.0 0.00 0.00 0.00 66 1011.9
20260508091244 51 309 7.0 13.0 0.00 0.00 0.00 66 1011.9
20260508091142 51 305 10.0 13.0 0.00 0.00 0.00 66 1011.9
20260508091040 51 126 9.0 14.0 0.00 0.00 0.00 67 1011.9
20260508090924 51 215 7.0 14.0 0.00 0.00 0.00 66 1011.9
20260508090846 51 251 7.0 14.0 0.00 0.00 0.00 67 1011.9
20260508090743 51 88 8.0 14.0 0.00 0.00 0.00 67 1011.9
20260508090639 51 292 9.0 14.0 0.00 0.00 0.00 67 1011.9
20260508090559 51 260 9.0 14.0 0.00 0.00 0.00 67 1011.9
20260508090434 51 312 9.0 14.0 0.00 0.00 0.00 67 1011.9
20260508090331 51 220 8.0 14.0 0.00 0.00 0.00 67 1011.9
20260508090240 51 192 11.0 14.0 0.00 0.00 0.00 67 1011.9
20260508090151 51 329 10.0 14.0 0.00 0.00 0.00 67 1011.9
20260508090031 51 80 9.0 12.0 0.00 0.00 0.00 68 1011.9
20260508085929 51 212 7.0 12.0 0.00 0.00 0.00 68 1011.9
20260508085847 51 223 9.0 12.0 0.00 0.00 0.00 68 1011.8
20260508085744 51 167 9.0 12.0 0.00 0.00 0.00 68 1011.8
20260508085642 51 188 10.0 12.0 0.00 0.00 0.00 68 1011.8
20260508085538 51 209 8.0 12.0 0.00 0.00 0.00 68 1011.8
20260508085437 51 313 7.0 12.0 0.00 0.00 0.00 68 1011.8
20260508085335 51 229 9.0 12.0 0.00 0.00 0.00 68 1011.8
20260508085239 51 232 8.0 12.0 0.00 0.00 0.00 68 1011.8
20260508085136 51 145 8.0 12.0 0.00 0.00 0.00 69 1011.8
20260508085033 51 236 9.0 12.0 0.00 0.00 0.00 69 1011.8
20260508084932 51 137 9.0 12.0 0.00 0.00 0.00 70 1011.8
20260508084830 51 230 8.0 12.0 0.00 0.00 0.00 70 1011.8
20260508084730 51 223 8.0 12.0 0.00 0.00 0.00 70 1011.8
20260508084700 51 328 7.0 12.0 0.00 0.00 0.00 70 1011.8
20260508084542 51 113 9.0 12.0 0.00 0.00 0.00 71 1011.8
20260508084440 51 185 8.0 12.0 0.00 0.00 0.00 71 1011.8
20260508084339 51 209 10.0 12.0 0.00 0.00 0.00 71 1011.7
20260508084237 51 332 8.0 12.0 0.00 0.00 0.00 71 1011.7
20260508084136 51 78 7.0 12.0 0.00 0.00 0.00 71 1011.7
20260508084034 51 226 9.0 12.0 0.00 0.00 0.00 72 1011.7
20260508083934 51 188 9.0 12.0 0.00 0.00 0.00 72 1011.7
20260508083836 51 285 7.0 12.0 0.00 0.00 0.00 72 1011.7
20260508083734 51 301 8.0 12.0 0.00 0.00 0.00 73 1011.7
20260508083653 51 168 8.0 12.0 0.00 0.00 0.00 73 1011.7
20260508083530 51 168 7.0 12.0 0.00 0.00 0.00 73 1011.7
20260508083429 51 258 8.0 12.0 0.00 0.00 0.00 73 1011.7
20260508083328 51 172 7.0 12.0 0.00 0.00 0.00 73 1011.7
20260508083237 51 195 10.0 12.0 0.00 0.00 0.00 73 1011.7
20260508083151 51 253 8.0 12.0 0.00 0.00 0.00 74 1011.7
20260508083047 51 212 8.0 12.0 0.00 0.00 0.00 74 1011.7
20260508082946 51 151 7.0 12.0 0.00 0.00 0.00 74 1011.7
20260508082843 51 198 8.0 12.0 0.00 0.00 0.00 74 1011.7
20260508082724 51 210 7.0 12.0 0.00 0.00 0.00 74 1011.7
20260508082641 51 172 8.0 12.0 0.00 0.00 0.00 74 1011.7
20260508082540 51 264 7.0 12.0 0.00 0.00 0.00 74 1011.7
20260508082435 51 137 8.0 12.0 0.00 0.00 0.00 74 1011.7
20260508082334 51 213 7.0 12.0 0.00 0.00 0.00 74 1011.7
20260508082236 51 244 7.0 12.0 0.00 0.00 0.00 74 1011.7
20260508082155 51 196 6.0 12.0 0.00 0.00 0.00 74 1011.7
20260508082034 51 192 7.0 12.0 0.00 0.00 0.00 74 1011.7
20260508081936 51 121 7.0 11.0 0.00 0.00 0.00 74 1011.7
20260508081854 51 150 7.0 11.0 0.00 0.00 0.00 74 1011.7
20260508081743 51 169 9.0 11.0 0.00 0.00 0.00 75 1011.7
20260508081651 51 162 6.0 11.0 0.00 0.00 0.00 75 1011.7
20260508081548 51 257 6.0 11.0 0.00 0.00 0.00 75 1011.7
20260508081424 51 147 5.0 11.0 0.00 0.00 0.00 75 1011.7
20260508081325 51 277 8.0 11.0 0.00 0.00 0.00 75 1011.7
20260508081243 51 299 8.0 11.0 0.00 0.00 0.00 75 1011.7
20260508081141 51 191 8.0 11.0 0.00 0.00 0.00 75 1011.7
20260508081040 51 182 8.0 11.0 0.00 0.00 0.00 75 1011.7
20260508080937 51 277 6.0 11.0 0.00 0.00 0.00 76 1011.7
20260508080834 51 82 5.0 11.0 0.00 0.00 0.00 76 1011.7
20260508080732 51 278 8.0 11.0 0.00 0.00 0.00 75 1011.7
20260508080631 51 275 7.0 11.0 0.00 0.00 0.00 75 1011.7
20260508080535 51 130 6.0 11.0 0.00 0.00 0.00 75 1011.7
20260508080455 51 316 6.0 11.0 0.00 0.00 0.00 75 1011.7
20260508080332 51 138 7.0 11.0 0.00 0.00 0.00 75 1011.7
20260508080250 51 282 7.0 11.0 0.00 0.00 0.00 75 1011.7
20260508080201 51 260 8.0 11.0 0.00 0.00 0.00 75 1011.7
20260508080039 51 222 8.0 11.0 0.00 0.00 0.00 76 1011.7
20260508075937 51 329 6.0 11.0 0.00 0.00 0.00 76 1011.7
20260508075836 51 72 6.0 11.0 0.00 0.00 0.00 76 1011.8
20260508075736 51 251 7.0 11.0 0.00 0.00 0.00 76 1011.8
20260508075635 51 222 8.0 11.0 0.00 0.00 0.00 75 1011.8
20260508075534 52 284 6.0 11.0 0.00 0.00 0.00 75 1011.8
20260508075432 52 240 6.0 11.0 0.00 0.00 0.00 75 1011.8
20260508075330 52 282 7.0 11.0 0.00 0.00 0.00 75 1011.8
20260508075229 52 323 5.0 11.0 0.00 0.00 0.00 75 1011.8
20260508075127 52 309 7.0 11.0 0.00 0.00 0.00 75 1011.8
20260508075030 52 112 6.0 11.0 0.00 0.00 0.00 75 1011.8
20260508074929 52 241 8.0 11.0 0.00 0.00 0.00 75 1011.8
20260508074827 52 329 6.0 11.0 0.00 0.00 0.00 75 1011.8
20260508074727 52 304 4.0 10.0 0.00 0.00 0.00 75 1011.8
20260508074656 52 226 7.0 12.0 0.00 0.00 0.00 75 1011.8
20260508074533 52 318 7.0 12.0 0.00 0.00 0.00 74 1011.8
20260508074452 52 298 6.0 12.0 0.00 0.00 0.00 74 1011.8
20260508074337 52 261 7.0 12.0 0.00 0.00 0.00 74 1011.7
20260508074234 52 280 7.0 12.0 0.00 0.00 0.00 75 1011.7
20260508074152 52 226 6.0 12.0 0.00 0.00 0.00 75 1011.7
20260508074050 52 223 6.0 12.0 0.00 0.00 0.00 74 1011.7
20260508073929 52 330 7.0 12.0 0.00 0.00 0.00 74 1011.7
20260508073847 52 112 9.0 12.0 0.00 0.00 0.00 74 1011.7
20260508073748 52 138 5.0 10.0 0.00 0.00 0.00 74 1011.7
20260508073646 52 237 7.0 10.0 0.00 0.00 0.00 74 1011.7
20260508073524 52 277 7.0 10.0 0.00 0.00 0.00 74 1011.7
20260508073429 52 151 6.0 10.0 0.00 0.00 0.00 74 1011.7
20260508073327 52 270 6.0 10.0 0.00 0.00 0.00 74 1011.7
20260508073226 52 244 7.0 10.0 0.00 0.00 0.00 74 1011.7
20260508073158 52 208 5.0 10.0 0.00 0.00 0.00 74 1011.7
20260508073039 52 323 4.0 10.0 0.00 0.00 0.00 74 1011.7
20260508072937 52 318 5.0 10.0 0.00 0.00 0.00 74 1011.7
20260508072835 52 313 7.0 10.0 0.00 0.00 0.00 74 1011.7
20260508072733 52 130 5.0 8.0 0.00 0.00 0.00 74 1011.7
20260508072656 52 312 7.0 8.0 0.00 0.00 0.00 74 1011.7
20260508072534 52 294 7.0 8.0 0.00 0.00 0.00 74 1011.7
20260508072433 52 220 6.0 9.0 0.00 0.00 0.00 74 1011.7
20260508072331 52 333 5.0 11.0 0.00 0.00 0.00 74 1011.7
20260508072232 52 193 6.0 11.0 0.00 0.00 0.00 74 1011.7
20260508072132 52 253 4.0 11.0 0.00 0.00 0.00 74 1011.7
20260508072030 52 150 6.0 11.0 0.00 0.00 0.00 73 1011.7
20260508071933 52 193 5.0 11.0 0.00 0.00 0.00 73 1011.7
20260508071832 52 268 5.0 11.0 0.00 0.00 0.00 73 1011.7
20260508071730 52 306 5.0 11.0 0.00 0.00 0.00 73 1011.7
20260508071659 52 199 6.0 11.0 0.00 0.00 0.00 73 1011.7
20260508071538 52 309 7.0 11.0 0.00 0.00 0.00 73 1011.7
20260508071436 52 332 7.0 11.0 0.00 0.00 0.00 73 1011.7
20260508071334 52 288 7.0 11.0 0.00 0.00 0.00 73 1012.1
20260508071236 52 198 7.0 8.0 0.00 0.00 0.00 72 1012.1
20260508071135 52 253 6.0 8.0 0.00 0.00 0.00 73 1012.1
20260508071032 52 188 6.0 8.0 0.00 0.00 0.00 73 1012.1
20260508070931 53 260 5.0 8.0 0.00 0.00 0.00 72 1012.1
20260508070849 53 138 5.0 10.0 0.00 0.00 0.00 72 1012.1
20260508070725 53 164 5.0 10.0 0.00 0.00 0.00 72 1012.1
20260508070645 53 196 5.0 10.0 0.00 0.00 0.00 72 1012.1
20260508070604 53 330 6.0 10.0 0.00 0.00 0.00 72 1012.1
20260508070424 53 328 7.0 10.0 0.00 0.00 0.00 72 1012.1
20260508070342 53 280 7.0 10.0 0.00 0.00 0.00 72 1012.1
20260508070259 53 271 7.0 10.0 0.00 0.00 0.00 72 1012.1
20260508070208 53 298 7.0 10.0 0.00 0.00 0.00 72 1012.1
20260508070024 53 289 8.0 10.0 0.00 0.00 0.00 72 1012.1
20260508065924 53 325 6.0 10.0 0.00 0.00 0.00 72 1012.1
20260508065824 53 332 7.0 10.0 0.00 0.00 0.00 71 1012.1
20260508065743 53 164 7.0 11.0 0.00 0.00 0.00 71 1012.1
20260508065641 53 332 7.0 11.0 0.00 0.00 0.00 71 1012.1
20260508065559 53 332 6.0 11.0 0.00 0.00 0.00 71 1012.1
20260508065441 53 298 7.0 11.0 0.00 0.00 0.00 71 1012.1
20260508065340 53 260 7.0 11.0 0.00 0.00 0.00 71 1012.1
20260508065240 53 277 6.0 11.0 0.00 0.00 0.00 71 1012.1
20260508065140 53 113 6.0 11.0 0.00 0.00 0.00 71 1012.1
20260508065039 53 329 7.0 11.0 0.00 0.00 0.00 70 1012.1
20260508064937 53 313 5.0 11.0 0.00 0.00 0.00 71 1012.1
20260508064840 53 120 8.0 11.0 0.00 0.00 0.00 70 1012.1
20260508064739 53 254 6.0 10.0 0.00 0.00 0.00 70 1012.1
20260508064648 53 203 7.0 10.0 0.00 0.00 0.00 70 1012.1
20260508064526 53 272 5.0 10.0 0.00 0.00 0.00 71 1012.1
20260508064443 53 88 5.0 10.0 0.00 0.00 0.00 70 1012.1
20260508064342 53 319 7.0 10.0 0.00 0.00 0.00 71 1012.4
20260508064301 53 76 6.0 10.0 0.00 0.00 0.00 71 1012.4
20260508064139 53 176 6.0 10.0 0.00 0.00 0.00 70 1012.4
20260508064041 53 257 5.0 10.0 0.00 0.00 0.00 70 1012.4
20260508063940 53 265 6.0 10.0 0.00 0.00 0.00 70 1012.4
20260508063838 53 186 6.0 10.0 0.00 0.00 0.00 69 1012.4
20260508063737 53 280 6.0 10.0 0.00 0.00 0.00 69 1012.4
20260508063636 53 162 7.0 10.0 0.00 0.00 0.00 69 1012.4
20260508063537 53 137 7.0 10.0 0.00 0.00 0.00 69 1012.4
20260508063436 53 40 6.0 10.0 0.00 0.00 0.00 69 1012.4
20260508063339 53 182 6.0 10.0 0.00 0.00 0.00 69 1012.4
20260508063257 53 143 7.0 10.0 0.00 0.00 0.00 69 1012.4
20260508063208 53 332 8.0 10.0 0.00 0.00 0.00 68 1012.4
20260508063045 53 332 6.0 10.0 0.00 0.00 0.00 68 1012.4
20260508062942 53 161 5.0 10.0 0.00 0.00 0.00 68 1012.4
20260508062840 53 285 4.0 10.0 0.00 0.00 0.00 68 1012.4
20260508062738 53 234 7.0 10.0 0.00 0.00 0.00 68 1012.4
20260508062636 53 206 6.0 10.0 0.00 0.00 0.00 68 1012.4
20260508062534 53 208 6.0 10.0 0.00 0.00 0.00 68 1012.4
20260508062436 53 230 6.0 11.0 0.00 0.00 0.00 68 1012.4
20260508062339 53 264 6.0 11.0 0.00 0.00 0.00 68 1012.4
20260508062237 53 236 7.0 11.0 0.00 0.00 0.00 68 1012.4
20260508062135 54 332 6.0 11.0 0.00 0.00 0.00 68 1012.4
20260508062033 54 248 5.0 11.0 0.00 0.00 0.00 68 1012.4
20260508061931 54 323 6.0 11.0 0.00 0.00 0.00 68 1012.4
20260508061849 54 110 5.0 11.0 0.00 0.00 0.00 68 1012.4
20260508061737 54 333 4.0 11.0 0.00 0.00 0.00 68 1012.4
20260508061651 54 71 5.0 11.0 0.00 0.00 0.00 68 1012.4
20260508061528 54 311 7.0 11.0 0.00 0.00 0.00 68 1012.4
20260508061427 54 229 5.0 11.0 0.00 0.00 0.00 68 1012.4
20260508061326 54 315 8.0 11.0 0.00 0.00 0.00 68 1012.5
20260508061244 54 196 7.0 11.0 0.00 0.00 0.00 69 1012.5
20260508061142 54 294 4.0 9.0 0.00 0.00 0.00 69 1012.5
20260508061040 54 332 4.0 9.0 0.00 0.00 0.00 68 1012.5
20260508060942 54 213 6.0 9.0 0.00 0.00 0.00 68 1012.5
20260508060840 54 107 6.0 9.0 0.00 0.00 0.00 68 1012.5
20260508060800 54 161 6.0 11.0 0.00 0.00 0.00 68 1012.5
20260508060640 54 316 6.0 11.0 0.00 0.00 0.00 68 1012.5
20260508060538 54 184 5.0 11.0 0.00 0.00 0.00 68 1012.5
20260508060456 54 258 4.0 11.0 0.00 0.00 0.00 67 1012.5
20260508060334 54 319 7.0 11.0 0.00 0.00 0.00 67 1012.5
20260508060232 54 164 6.0 11.0 0.00 0.00 0.00 68 1012.5
20260508060206 54 172 6.0 11.0 0.00 0.00 0.00 68 1012.5
20260508060103 54 148 6.0 11.0 0.00 0.00 0.00 68 1012.5
20260508055940 54 260 7.0 11.0 0.00 0.00 0.00 68 1012.5
20260508055839 54 330 5.0 10.0 0.00 0.00 0.00 68 1012.7
20260508055737 54 164 6.0 10.0 0.00 0.00 0.00 68 1012.7
20260508055636 54 85 7.0 10.0 0.00 0.00 0.00 68 1012.7
20260508055533 54 322 5.0 10.0 0.00 0.00 0.00 68 1012.7
20260508055436 54 320 6.0 10.0 0.00 0.00 0.00 68 1012.7
20260508055334 54 192 6.0 10.0 0.00 0.00 0.00 69 1012.7
20260508055231 54 113 7.0 10.0 0.00 0.00 0.00 68 1012.7
20260508055130 54 332 5.0 10.0 0.00 0.00 0.00 68 1012.7
20260508055028 54 271 5.0 10.0 0.00 0.00 0.00 68 1012.7
20260508054946 54 315 4.0 10.0 0.00 0.00 0.00 67 1012.7
20260508054904 54 329 3.0 10.0 0.00 0.00 0.00 66 1012.7
20260508054738 54 216 7.0 10.0 0.00 0.00 0.00 67 1012.7
20260508054648 54 237 4.0 10.0 0.00 0.00 0.00 67 1012.7
20260508054525 54 292 5.0 10.0 0.00 0.00 0.00 67 1012.7
20260508054444 54 282 3.0 10.0 0.00 0.00 0.00 67 1012.7
20260508054341 54 200 4.0 10.0 0.00 0.00 0.00 66 1012.6
20260508054240 54 244 6.0 10.0 0.00 0.00 0.00 66 1012.6
20260508054139 54 208 7.0 10.0 0.00 0.00 0.00 67 1012.6
20260508054038 54 325 6.0 10.0 0.00 0.00 0.00 68 1012.6
20260508053940 54 148 5.0 10.0 0.00 0.00 0.00 67 1012.6
20260508053841 54 93 6.0 10.0 0.00 0.00 0.00 67 1012.6
20260508053738 54 282 6.0 10.0 0.00 0.00 0.00 67 1012.6
20260508053637 54 121 4.0 8.0 0.00 0.00 0.00 67 1012.6
20260508053535 54 210 5.0 8.0 0.00 0.00 0.00 67 1012.6
20260508053433 54 282 6.0 8.0 0.00 0.00 0.00 68 1012.6
20260508053336 54 216 5.0 8.0 0.00 0.00 0.00 67 1012.6
20260508053256 54 308 3.0 8.0 0.00 0.00 0.00 66 1012.6
20260508053227 54 104 4.0 8.0 0.00 0.00 0.00 65 1012.6
20260508053042 55 320 4.0 8.0 0.00 0.00 0.00 65 1012.6
20260508053001 55 308 3.0 8.0 0.00 0.00 0.00 65 1012.6
20260508052838 55 281 4.0 8.0 0.00 0.00 0.00 66 1012.6
20260508052736 55 224 4.0 8.0 0.00 0.00 0.00 66 1012.6
20260508052635 55 209 5.0 8.0 0.00 0.00 0.00 65 1012.6
20260508052534 55 140 5.0 8.0 0.00 0.00 0.00 65 1012.6
20260508052457 55 244 3.0 8.0 0.00 0.00 0.00 65 1012.6
20260508052334 55 330 4.0 8.0 0.00 0.00 0.00 65 1012.6
20260508052232 55 313 5.0 8.0 0.00 0.00 0.00 65 1012.6
20260508052130 55 76 7.0 8.0 0.00 0.00 0.00 65 1012.6
20260508052029 55 175 6.0 8.0 0.00 0.00 0.00 66 1012.6
20260508051929 55 329 5.0 8.0 0.00 0.00 0.00 65 1012.6
20260508051827 55 79 4.0 8.0 0.00 0.00 0.00 64 1012.6
20260508051741 55 195 6.0 8.0 0.00 0.00 0.00 64 1012.6
20260508051651 55 210 6.0 8.0 0.00 0.00 0.00 64 1012.6
20260508051529 55 76 6.0 8.0 0.00 0.00 0.00 65 1012.6
20260508051426 55 124 6.0 8.0 0.00 0.00 0.00 65 1012.6
20260508051344 55 329 3.0 7.0 0.00 0.00 0.00 65 1012.6
20260508051242 55 205 3.0 7.0 0.00 0.00 0.00 65 1012.6
20260508051140 55 274 4.0 7.0 0.00 0.00 0.00 65 1012.6
20260508051040 55 229 3.0 7.0 0.00 0.00 0.00 65 1012.6
20260508051003 55 165 4.0 7.0 0.00 0.00 0.00 66 1012.6
20260508050839 55 291 4.0 7.0 0.00 0.00 0.00 68 1012.6
20260508050759 55 323 4.0 7.0 0.00 0.00 0.00 68 1012.6
20260508050636 55 295 5.0 7.0 0.00 0.00 0.00 68 1012.6
20260508050533 55 212 2.0 6.0 0.00 0.00 0.00 67 1012.6
20260508050432 55 330 1.0 6.0 0.00 0.00 0.00 66 1012.6
20260508050350 55 333 2.0 6.0 0.00 0.00 0.00 66 1012.6
20260508050248 55 233 3.0 6.0 0.00 0.00 0.00 65 1012.6
20260508050156 55 329 2.0 6.0 0.00 0.00 0.00 65 1012.6
20260508050038 55 260 2.0 6.0 0.00 0.00 0.00 66 1012.6
20260508045935 55 137 3.0 7.0 0.00 0.00 0.00 67 1012.6
20260508045834 55 329 3.0 7.0 0.00 0.00 0.00 66 1012.4
20260508045755 55 330 4.0 7.0 0.00 0.00 0.00 65 1012.4
20260508045632 55 332 4.0 7.0 0.00 0.00 0.00 65 1012.4
20260508045531 55 332 4.0 7.0 0.00 0.00 0.00 66 1012.4
20260508045431 55 332 4.0 8.0 0.00 0.00 0.00 66 1012.4
20260508045337 55 332 3.0 8.0 0.00 0.00 0.00 66 1012.4
20260508045235 55 330 5.0 8.0 0.00 0.00 0.00 67 1012.4
20260508045133 55 220 4.0 8.0 0.00 0.00 0.00 67 1012.4
20260508045032 55 215 2.0 8.0 0.00 0.00 0.00 66 1012.4
20260508044932 55 240 2.0 8.0 0.00 0.00 0.00 66 1012.4
20260508044829 55 330 3.0 8.0 0.00 0.00 0.00 66 1012.4
20260508044749 55 329 3.0 8.0 0.00 0.00 0.00 66 1012.4
20260508044658 56 332 3.0 8.0 0.00 0.00 0.00 66 1012.4
20260508044540 56 330 1.0 6.0 0.00 0.00 0.00 65 1012.4
20260508044440 56 332 2.0 7.0 0.00 0.00 0.00 66 1012.4
20260508044337 56 333 3.0 7.0 0.00 0.00 0.00 66 1012.3
20260508044236 56 332 5.0 7.0 0.00 0.00 0.00 65 1012.3
20260508044135 56 277 5.0 7.0 0.00 0.00 0.00 65 1012.3
20260508044053 56 244 2.0 7.0 0.00 0.00 0.00 65 1012.3
20260508043931 56 333 1.0 7.0 0.00 0.00 0.00 64 1012.3
20260508043834 56 168 2.0 8.0 0.00 0.00 0.00 65 1012.3
20260508043732 56 330 3.0 8.0 0.00 0.00 0.00 66 1012.3
20260508043650 56 332 3.0 8.0 0.00 0.00 0.00 65 1012.3
20260508043527 56 281 3.0 8.0 0.00 0.00 0.00 65 1012.3
20260508043425 56 224 1.0 8.0 0.00 0.00 0.00 65 1012.3
20260508043326 56 148 4.0 8.0 0.00 0.00 0.00 65 1012.3
20260508043226 56 332 5.0 8.0 0.00 0.00 0.00 65 1012.3
20260508043200 56 229 2.0 8.0 0.00 0.00 0.00 65 1012.3
20260508043036 56 333 2.0 8.0 0.00 0.00 0.00 66 1012.3
20260508042935 56 226 6.0 8.0 0.00 0.00 0.00 66 1012.3
20260508042834 56 240 2.0 8.0 0.00 0.00 0.00 65 1012.5
20260508042733 56 284 5.0 8.0 0.00 0.00 0.00 65 1012.5
20260508042632 56 241 3.0 6.0 0.00 0.00 0.00 65 1012.5
20260508042530 56 291 3.0 6.0 0.00 0.00 0.00 65 1012.5
20260508042432 56 332 3.0 6.0 0.00 0.00 0.00 65 1012.5
20260508042330 56 213 2.0 6.0 0.00 0.00 0.00 65 1012.5
20260508042249 56 328 2.0 6.0 0.00 0.00 0.00 64 1012.5
20260508042129 56 333 3.0 6.0 0.00 0.00 0.00 64 1012.5
20260508042027 56 332 4.0 6.0 0.00 0.00 0.00 63 1012.5
20260508041926 56 326 2.0 8.0 0.00 0.00 0.00 64 1012.5
20260508041826 56 236 5.0 8.0 0.00 0.00 0.00 64 1012.5
20260508041757 56 131 3.0 8.0 0.00 0.00 0.00 65 1012.5
20260508041649 56 333 2.0 8.0 0.00 0.00 0.00 65 1012.5
20260508041527 56 202 3.0 8.0 0.00 0.00 0.00 64 1012.5
20260508041425 56 210 4.0 8.0 0.00 0.00 0.00 65 1012.5
20260508041343 56 188 3.0 8.0 0.00 0.00 0.00 64 1012.7
20260508041243 56 296 3.0 8.0 0.00 0.00 0.00 64 1012.7
20260508041142 57 237 5.0 8.0 0.00 0.00 0.00 63 1012.7
20260508041041 57 332 4.0 8.0 0.00 0.00 0.00 64 1012.7
20260508040924 57 316 2.0 7.0 0.00 0.00 0.00 64 1012.7
20260508040843 57 294 1.0 8.0 0.00 0.00 0.00 65 1012.7
20260508040741 57 127 1.0 8.0 0.00 0.00 0.00 65 1012.7
20260508040640 57 288 3.0 8.0 0.00 0.00 0.00 64 1012.7
20260508040539 57 226 2.0 8.0 0.00 0.00 0.00 63 1012.7
20260508040438 57 212 2.0 8.0 0.00 0.00 0.00 63 1012.7
20260508040336 57 272 3.0 8.0 0.00 0.00 0.00 63 1012.7
20260508040242 57 328 3.0 8.0 0.00 0.00 0.00 63 1012.7
20260508040212 57 150 2.0 8.0 0.00 0.00 0.00 63 1012.7
20260508040028 57 27 6.0 8.0 0.00 0.00 0.00 63 1012.7
20260508035927 57 88 3.0 7.0 0.00 0.00 0.00 63 1012.7
20260508035845 57 332 4.0 7.0 0.00 0.00 0.00 62 1012.6
20260508035742 57 323 3.0 7.0 0.00 0.00 0.00 62 1012.6
20260508035642 57 76 2.0 7.0 0.00 0.00 0.00 62 1012.6
20260508035541 57 104 3.0 7.0 0.00 0.00 0.00 62 1012.6
20260508035459 57 313 5.0 7.0 0.00 0.00 0.00 63 1012.6
20260508035341 57 112 3.0 7.0 0.00 0.00 0.00 63 1012.6
20260508035240 57 325 3.0 7.0 0.00 0.00 0.00 62 1012.6
20260508035138 57 330 4.0 7.0 0.00 0.00 0.00 63 1012.6
20260508035036 57 203 4.0 6.0 0.00 0.00 0.00 63 1012.6
20260508034935 57 200 4.0 6.0 0.00 0.00 0.00 62 1012.6
20260508034853 57 309 4.0 6.0 0.00 0.00 0.00 62 1012.6
20260508034740 57 318 3.0 6.0 0.00 0.00 0.00 62 1012.6
20260508034653 57 330 2.0 6.0 0.00 0.00 0.00 61 1012.6
20260508034532 57 326 2.0 6.0 0.00 0.00 0.00 61 1012.6
20260508034430 57 275 5.0 6.0 0.00 0.00 0.00 61 1012.6
20260508034348 57 322 4.0 6.0 0.00 0.00 0.00 62 1012.7
20260508034307 57 251 4.0 6.0 0.00 0.00 0.00 62 1012.7
20260508034204 57 332 4.0 7.0 0.00 0.00 0.00 61 1012.7
20260508034102 57 333 4.0 7.0 0.00 0.00 0.00 61 1012.7
20260508033940 57 350 4.0 7.0 0.00 0.00 0.00 61 1012.7
20260508033839 57 330 5.0 7.0 0.00 0.00 0.00 61 1012.7
20260508033741 57 359 3.0 7.0 0.00 0.00 0.00 61 1012.7
20260508033700 57 333 3.0 7.0 0.00 0.00 0.00 63 1012.7
20260508033536 57 332 4.0 7.0 0.00 0.00 0.00 62 1012.7
20260508033435 57 339 3.0 7.0 0.00 0.00 0.00 62 1012.7
20260508033334 57 360 5.0 8.0 0.00 0.00 0.00 62 1012.7
20260508033252 57 113 4.0 8.0 0.00 0.00 0.00 62 1012.7
20260508033223 57 330 3.0 8.0 0.00 0.00 0.00 61 1012.7
20260508033039 57 360 4.0 8.0 0.00 0.00 0.00 60 1012.7
20260508032941 57 332 3.0 8.0 0.00 0.00 0.00 60 1012.7
20260508032840 58 359 3.0 8.0 0.00 0.00 0.00 59 1012.5
20260508032759 58 342 3.0 8.0 0.00 0.00 0.00 61 1012.5
20260508032637 58 333 5.0 8.0 0.00 0.00 0.00 59 1012.5
20260508032535 58 330 5.0 8.0 0.00 0.00 0.00 59 1012.5
20260508032434 58 346 5.0 8.0 0.00 0.00 0.00 59 1012.5
20260508032332 58 333 5.0 8.0 0.00 0.00 0.00 59 1012.5
20260508032234 58 332 5.0 8.0 0.00 0.00 0.00 59 1012.5
20260508032132 58 333 6.0 8.0 0.00 0.00 0.00 58 1012.5
20260508032030 58 349 6.0 8.0 0.00 0.00 0.00 58 1012.5
20260508031929 58 332 5.0 8.0 0.00 0.00 0.00 59 1012.5
20260508031827 58 352 7.0 8.0 0.00 0.00 0.00 59 1012.5
20260508031736 58 329 3.0 8.0 0.00 0.00 0.00 60 1012.5
20260508031645 58 306 6.0 9.0 0.00 0.00 0.00 59 1012.5
20260508031526 58 332 4.0 10.0 0.00 0.00 0.00 59 1012.5
20260508031425 58 328 6.0 10.0 0.00 0.00 0.00 57 1012.5
20260508031344 58 335 5.0 10.0 0.00 0.00 0.00 57 1012.7
20260508031242 58 330 6.0 10.0 0.00 0.00 0.00 57 1012.7
20260508031142 58 350 3.0 10.0 0.00 0.00 0.00 59 1012.7
20260508031041 58 332 5.0 10.0 0.00 0.00 0.00 59 1012.7
20260508030940 58 332 6.0 10.0 0.00 0.00 0.00 60 1012.7
20260508030841 58 332 6.0 10.0 0.00 0.00 0.00 59 1012.7
20260508030740 58 346 5.0 10.0 0.00 0.00 0.00 58 1012.7
20260508030639 58 323 6.0 10.0 0.00 0.00 0.00 59 1012.7
20260508030536 58 335 5.0 10.0 0.00 0.00 0.00 59 1012.7
20260508030434 58 328 5.0 10.0 0.00 0.00 0.00 59 1012.7
20260508030332 58 329 5.0 10.0 0.00 0.00 0.00 58 1012.7
20260508030231 58 330 4.0 10.0 0.00 0.00 0.00 57 1012.7
20260508030206 58 330 5.0 10.0 0.00 0.00 0.00 57 1012.7
20260508030103 58 330 6.0 10.0 0.00 0.00 0.00 58 1012.7
20260508025941 58 330 6.0 9.0 0.00 0.00 0.00 58 1012.7
20260508025839 58 330 6.0 9.0 0.00 0.00 0.00 57 1012.5
20260508025738 58 360 6.0 9.0 0.00 0.00 0.00 57 1012.5
20260508025636 58 347 4.0 9.0 0.00 0.00 0.00 56 1012.5
20260508025535 58 319 5.0 9.0 0.00 0.00 0.00 57 1012.5
20260508025455 58 330 6.0 9.0 0.00 0.00 0.00 57 1012.5
20260508025337 58 330 7.0 9.0 0.00 0.00 0.00 58 1012.5
20260508025236 58 340 5.0 9.0 0.00 0.00 0.00 58 1012.5
20260508025134 58 329 5.0 10.0 0.00 0.00 0.00 57 1012.5
20260508025033 58 343 4.0 10.0 0.00 0.00 0.00 58 1012.5
20260508024931 58 330 6.0 10.0 0.00 0.00 0.00 57 1012.5
20260508024827 58 352 4.0 10.0 0.00 0.00 0.00 56 1012.5
20260508024726 58 339 5.0 10.0 0.00 0.00 0.00 56 1012.5
20260508024657 58 342 6.0 10.0 0.00 0.00 0.00 56 1012.5
20260508024559 58 332 5.0 10.0 0.00 0.00 0.00 57 1012.5
20260508024436 58 329 5.0 10.0 0.00 0.00 0.00 57 1012.5
20260508024334 58 329 7.0 10.0 0.00 0.00 0.00 56 1012.5
20260508024235 58 326 4.0 8.0 0.00 0.00 0.00 57 1012.5
20260508024132 58 330 6.0 8.0 0.00 0.00 0.00 59 1012.5
20260508024030 58 346 6.0 8.0 0.00 0.00 0.00 58 1012.5
20260508023929 58 332 5.0 8.0 0.00 0.00 0.00 57 1012.5
20260508023852 58 342 5.0 8.0 0.00 0.00 0.00 56 1012.5
20260508023729 58 330 5.0 8.0 0.00 0.00 0.00 58 1012.5
20260508023627 58 336 4.0 8.0 0.00 0.00 0.00 57 1012.5
20260508023526 58 333 6.0 8.0 0.00 0.00 0.00 57 1012.5
20260508023426 58 330 5.0 8.0 0.00 0.00 0.00 57 1012.5
20260508023324 58 332 5.0 8.0 0.00 0.00 0.00 57 1012.5
20260508023243 58 93 5.0 8.0 0.00 0.00 0.00 57 1012.5
20260508023158 58 336 4.0 8.0 0.00 0.00 0.00 57 1012.5
20260508023055 58 329 5.0 8.0 0.00 0.00 0.00 57 1012.5
20260508022932 58 85 5.0 8.0 0.00 0.00 0.00 58 1012.5
20260508022830 58 282 6.0 8.0 0.00 0.00 0.00 59 1012.3
20260508022749 58 332 3.0 8.0 0.00 0.00 0.00 59 1012.3
20260508022628 58 336 5.0 8.0 0.00 0.00 0.00 59 1012.3
20260508022526 58 349 6.0 8.0 0.00 0.00 0.00 58 1012.3
20260508022424 58 306 4.0 8.0 0.00 0.00 0.00 57 1012.3
20260508022327 58 102 3.0 8.0 0.00 0.00 0.00 57 1012.3
20260508022226 58 330 7.0 8.0 0.00 0.00 0.00 56 1012.3
20260508022124 58 329 5.0 8.0 0.00 0.00 0.00 56 1012.3
20260508022042 58 329 5.0 8.0 0.00 0.00 0.00 57 1012.3
20260508021941 58 330 4.0 8.0 0.00 0.00 0.00 57 1012.3
20260508021838 58 332 4.0 8.0 0.00 0.00 0.00 57 1012.3
20260508021736 58 332 6.0 8.0 0.00 0.00 0.00 56 1012.3
20260508021644 58 333 5.0 8.0 0.00 0.00 0.00 56 1012.3
20260508021527 58 325 6.0 8.0 0.00 0.00 0.00 57 1012.3
20260508021445 58 326 6.0 8.0 0.00 0.00 0.00 58 1012.3
20260508021342 58 333 5.0 8.0 0.00 0.00 0.00 57 1012.3
20260508021240 58 329 6.0 8.0 0.00 0.00 0.00 58 1012.3
20260508021139 58 333 6.0 8.0 0.00 0.00 0.00 56 1012.3
20260508021038 58 332 3.0 8.0 0.00 0.00 0.00 58 1012.3
20260508020937 58 339 3.0 8.0 0.00 0.00 0.00 58 1012.3
20260508020838 58 330 4.0 8.0 0.00 0.00 0.00 58 1012.3
20260508020736 58 328 5.0 8.0 0.00 0.00 0.00 57 1012.3
20260508020635 58 335 5.0 8.0 0.00 0.00 0.00 58 1012.3
20260508020534 58 326 7.0 8.0 0.00 0.00 0.00 57 1012.3
20260508020453 58 330 5.0 7.0 0.00 0.00 0.00 56 1012.3
20260508020330 58 332 5.0 7.0 0.00 0.00 0.00 57 1012.3
20260508020228 58 339 6.0 7.0 0.00 0.00 0.00 57 1012.3
20260508020158 58 332 6.0 7.0 0.00 0.00 0.00 57 1012.3
20260508020039 58 332 5.0 7.0 0.00 0.00 0.00 56 1012.3
20260508015938 58 344 4.0 8.0 0.00 0.00 0.00 57 1012.3
20260508015837 58 330 5.0 8.0 0.00 0.00 0.00 59 1012.1
20260508015736 58 332 5.0 8.0 0.00 0.00 0.00 59 1012.1
20260508015634 58 333 4.0 8.0 0.00 0.00 0.00 59 1012.1
20260508015532 58 328 4.0 8.0 0.00 0.00 0.00 59 1012.1
20260508015434 58 332 3.0 8.0 0.00 0.00 0.00 60 1012.1
20260508015332 58 323 4.0 8.0 0.00 0.00 0.00 60 1012.1
20260508015229 58 340 4.0 8.0 0.00 0.00 0.00 59 1012.1
20260508015129 58 332 5.0 10.0 0.00 0.00 0.00 59 1012.1
20260508015028 58 330 4.0 10.0 0.00 0.00 0.00 59 1012.1
20260508014927 58 329 3.0 10.0 0.00 0.00 0.00 59 1012.1
20260508014826 58 339 5.0 10.0 0.00 0.00 0.00 59 1012.1
20260508014745 58 332 5.0 10.0 0.00 0.00 0.00 59 1012.1
20260508014718 58 332 5.0 10.0 0.00 0.00 0.00 59 1012.1
20260508014538 58 329 6.0 10.0 0.00 0.00 0.00 59 1012.1
20260508014438 58 347 5.0 10.0 0.00 0.00 0.00 59 1012.1
20260508014358 58 339 5.0 10.0 0.00 0.00 0.00 60 1012.0
20260508014236 58 332 7.0 10.0 0.00 0.00 0.00 60 1012.0
20260508014135 58 332 5.0 8.0 0.00 0.00 0.00 61 1012.0
20260508014033 58 332 5.0 8.0 0.00 0.00 0.00 60 1012.0
20260508013935 58 329 3.0 8.0 0.00 0.00 0.00 60 1012.0
20260508013833 58 336 5.0 8.0 0.00 0.00 0.00 60 1012.0
20260508013732 58 335 6.0 9.0 0.00 0.00 0.00 59 1012.0
20260508013629 58 332 6.0 9.0 0.00 0.00 0.00 60 1012.0
20260508013528 58 344 6.0 9.0 0.00 0.00 0.00 60 1012.0
20260508013427 58 339 6.0 9.0 0.00 0.00 0.00 61 1012.0
20260508013325 58 332 4.0 9.0 0.00 0.00 0.00 62 1012.0
20260508013227 58 329 6.0 9.0 0.00 0.00 0.00 61 1012.0
20260508013158 58 339 4.0 9.0 0.00 0.00 0.00 61 1012.0
20260508013035 58 339 6.0 9.0 0.00 0.00 0.00 62 1012.0
20260508012934 58 332 5.0 9.0 0.00 0.00 0.00 62 1012.0
20260508012831 58 333 4.0 10.0 0.00 0.00 0.00 62 1011.8
20260508012734 58 339 5.0 10.0 0.00 0.00 0.00 61 1011.8
20260508012632 58 330 4.0 10.0 0.00 0.00 0.00 61 1011.8
20260508012535 58 333 4.0 10.0 0.00 0.00 0.00 61 1011.8
20260508012434 58 326 5.0 10.0 0.00 0.00 0.00 60 1011.8
20260508012332 58 339 5.0 10.0 0.00 0.00 0.00 60 1011.8
20260508012232 58 330 5.0 10.0 0.00 0.00 0.00 60 1011.8
20260508012128 58 329 2.0 10.0 0.00 0.00 0.00 59 1011.8
20260508012027 58 344 6.0 10.0 0.00 0.00 0.00 60 1011.8
20260508011927 58 340 4.0 8.0 0.00 0.00 0.00 60 1011.8
20260508011831 58 328 6.0 8.0 0.00 0.00 0.00 60 1011.8
20260508011749 58 330 6.0 8.0 0.00 0.00 0.00 61 1011.8
20260508011719 58 323 5.0 8.0 0.00 0.00 0.00 62 1011.8
20260508011536 58 332 4.0 8.0 0.00 0.00 0.00 62 1011.8
20260508011434 58 333 2.0 7.0 0.00 0.00 0.00 61 1011.8
20260508011332 58 329 5.0 7.0 0.00 0.00 0.00 60 1011.5
20260508011232 58 332 3.0 8.0 0.00 0.00 0.00 62 1011.5
20260508011150 58 340 4.0 8.0 0.00 0.00 0.00 62 1011.5
20260508011030 58 329 2.0 8.0 0.00 0.00 0.00 62 1011.5
20260508010928 58 329 5.0 10.0 0.00 0.00 0.00 61 1011.5
20260508010827 58 329 4.0 10.0 0.00 0.00 0.00 61 1011.5
20260508010725 58 332 4.0 10.0 0.00 0.00 0.00 60 1011.5
20260508010624 58 332 6.0 10.0 0.00 0.00 0.00 60 1011.5
20260508010542 58 332 5.0 10.0 0.00 0.00 0.00 60 1011.5
20260508010442 58 336 5.0 10.0 0.00 0.00 0.00 61 1011.5
20260508010324 58 332 5.0 10.0 0.00 0.00 0.00 60 1011.5
20260508010243 58 335 5.0 10.0 0.00 0.00 0.00 60 1011.5
20260508010214 58 332 7.0 10.0 0.00 0.00 0.00 60 1011.5
20260508010049 58 332 4.0 8.0 0.00 0.00 0.00 60 1011.5
20260508005929 58 330 5.0 8.0 0.00 0.00 0.00 61 1011.5
20260508005828 58 330 3.0 8.0 0.00 0.00 0.00 62 1011.6
20260508005726 58 337 4.0 8.0 0.00 0.00 0.00 62 1011.6
20260508005628 58 332 5.0 8.0 0.00 0.00 0.00 62 1011.6
20260508005531 58 326 4.0 8.0 0.00 0.00 0.00 62 1011.6
20260508005454 58 333 6.0 8.0 0.00 0.00 0.00 62 1011.6
20260508005331 58 330 2.0 8.0 0.00 0.00 0.00 61 1011.6
20260508005253 58 332 3.0 8.0 0.00 0.00 0.00 62 1011.6
20260508005131 58 332 4.0 8.0 0.00 0.00 0.00 62 1011.6
20260508005029 58 332 3.0 8.0 0.00 0.00 0.00 62 1011.6
20260508004929 58 333 5.0 8.0 0.00 0.00 0.00 61 1011.6
20260508004831 58 332 6.0 8.0 0.00 0.00 0.00 63 1011.6
20260508004802 58 332 5.0 8.0 0.00 0.00 0.00 63 1011.6
20260508004651 58 330 5.0 8.0 0.00 0.00 0.00 63 1011.6
20260508004529 59 332 4.0 7.0 0.00 0.00 0.00 63 1011.6
20260508004447 59 332 2.0 7.0 0.00 0.00 0.00 63 1011.6
20260508004405 59 332 4.0 7.0 0.00 0.00 0.00 63 1011.6
20260508004242 59 332 2.0 7.0 0.00 0.00 0.00 63 1011.6
20260508004202 59 332 4.0 7.0 0.00 0.00 0.00 63 1011.6
20260508004040 59 333 4.0 7.0 0.00 0.00 0.00 63 1011.6
20260508003943 59 332 3.0 7.0 0.00 0.00 0.00 64 1011.6
20260508003902 59 332 4.0 7.0 0.00 0.00 0.00 65 1011.6
20260508003739 59 332 4.0 7.0 0.00 0.00 0.00 64 1011.6
20260508003636 59 326 4.0 7.0 0.00 0.00 0.00 63 1011.6
20260508003535 59 335 4.0 7.0 0.00 0.00 0.00 63 1011.6
20260508003433 59 332 5.0 7.0 0.00 0.00 0.00 63 1011.6
20260508003331 59 326 4.0 7.0 0.00 0.00 0.00 63 1011.6
20260508003234 59 330 4.0 7.0 0.00 0.00 0.00 64 1011.6
20260508003205 59 332 3.0 7.0 0.00 0.00 0.00 64 1011.6
20260508003042 59 332 3.0 7.0 0.00 0.00 0.00 64 1011.6
20260508002939 59 330 3.0 7.0 0.00 0.00 0.00 64 1011.6
20260508002837 59 326 2.0 7.0 0.00 0.00 0.00 64 1011.2
20260508002736 59 332 4.0 7.0 0.00 0.00 0.00 64 1011.2
20260508002634 59 332 4.0 7.0 0.00 0.00 0.00 63 1011.2
20260508002553 59 332 6.0 7.0 0.00 0.00 0.00 63 1011.2
20260508002434 59 330 4.0 8.0 0.00 0.00 0.00 62 1011.2
20260508002333 59 332 3.0 8.0 0.00 0.00 0.00 62 1011.2
20260508002231 59 330 4.0 8.0 0.00 0.00 0.00 62 1011.2
20260508002130 59 332 3.0 8.0 0.00 0.00 0.00 62 1011.2
20260508002028 59 330 5.0 8.0 0.00 0.00 0.00 62 1011.2
20260508001926 59 332 3.0 8.0 0.00 0.00 0.00 62 1011.2
20260508001830 59 325 4.0 8.0 0.00 0.00 0.00 62 1011.2
20260508001739 59 330 5.0 8.0 0.00 0.00 0.00 61 1011.2
20260508001648 59 333 5.0 8.0 0.00 0.00 0.00 61 1011.2
20260508001526 59 322 4.0 8.0 0.00 0.00 0.00 62 1011.2
20260508001424 59 330 4.0 8.0 0.00 0.00 0.00 62 1011.2
20260508001342 59 332 5.0 8.0 0.00 0.00 0.00 62 1011.0
20260508001240 59 332 4.0 8.0 0.00 0.00 0.00 61 1011.0
20260508001138 59 332 5.0 8.0 0.00 0.00 0.00 62 1011.0
20260508001101 59 328 5.0 8.0 0.00 0.00 0.00 63 1011.0
20260508000939 59 332 6.0 8.0 0.00 0.00 0.00 62 1011.0
20260508000837 59 335 4.0 8.0 0.00 0.00 0.00 63 1011.0
20260508000735 59 332 4.0 8.0 0.00 0.00 0.00 62 1011.0
20260508000633 59 330 3.0 8.0 0.00 0.00 0.00 62 1011.0
20260508000533 59 332 3.0 8.0 0.00 0.00 0.00 61 1011.0
20260508000452 59 330 3.0 8.0 0.00 0.00 0.00 62 1011.0
20260508000334 59 332 4.0 8.0 0.00 0.00 0.00 62 1011.0
20260508000234 60 332 3.0 8.0 0.00 0.00 0.00 62 1011.0
20260508000205 60 330 4.0 8.0 0.00 0.00 0.00 62 1011.0
20260508000041 60 329 4.0 7.0 0.00 0.00 0.00 62 1011.0
20260507235940 60 329 6.0 7.0 0.00 0.00 0.00 62 1011.0
20260507235858 60 332 3.0 7.0 0.00 0.00 0.00 62 1011.0
20260507235736 60 330 3.0 8.0 0.00 0.00 0.00 62 1011.0
20260507235633 60 329 3.0 8.0 0.00 0.00 0.00 62 1011.0
20260507235536 60 332 4.0 8.0 0.00 0.00 0.00 62 1011.0
20260507235439 60 333 5.0 8.0 0.00 0.00 0.00 62 1011.0
20260507235337 60 329 4.0 8.0 0.00 0.00 0.00 62 1011.0
20260507235235 60 323 4.0 8.0 0.00 0.00 0.00 62 1011.0
20260507235133 60 329 4.0 8.0 0.00 0.00 0.00 61 1011.0
20260507235030 60 332 4.0 8.0 0.00 0.00 0.00 61 1011.0
20260507234929 60 330 5.0 8.0 0.00 0.00 0.00 62 1011.0
20260507234832 60 329 4.0 6.0 0.00 0.00 0.00 61 1011.0
20260507234740 60 330 4.0 6.0 0.00 0.00 0.00 62 1011.0
20260507234648 60 323 4.0 6.0 0.00 0.00 0.00 63 1011.0
20260507234527 60 320 2.0 6.0 0.00 0.00 0.00 62 1011.0
20260507234447 60 328 3.0 7.0 0.00 0.00 0.00 62 1011.0
20260507234325 60 329 4.0 7.0 0.00 0.00 0.00 61 1010.9
20260507234244 60 328 4.0 7.0 0.00 0.00 0.00 61 1010.9
20260507234204 60 333 3.0 7.0 0.00 0.00 0.00 62 1010.9
20260507234045 60 332 4.0 7.0 0.00 0.00 0.00 63 1010.9
20260507233943 60 330 2.0 7.0 0.00 0.00 0.00 64 1010.9
20260507233841 60 325 3.0 7.0 0.00 0.00 0.00 63 1010.9
20260507233739 60 328 5.0 7.0 0.00 0.00 0.00 63 1010.9
20260507233636 60 330 6.0 7.0 0.00 0.00 0.00 62 1010.9
20260507233554 60 323 4.0 7.0 0.00 0.00 0.00 62 1010.9
20260507233431 60 329 4.0 7.0 0.00 0.00 0.00 62 1010.9
20260507233329 60 335 6.0 7.0 0.00 0.00 0.00 64 1010.9
20260507233238 60 328 4.0 8.0 0.00 0.00 0.00 63 1010.9
20260507233152 60 343 2.0 8.0 0.00 0.00 0.00 63 1010.9
20260507233048 60 328 2.0 8.0 0.00 0.00 0.00 63 1010.9
20260507232946 60 337 4.0 8.0 0.00 0.00 0.00 63 1010.9
20260507232904 60 328 3.0 8.0 0.00 0.00 0.00 63 1010.9
20260507232742 60 328 3.0 8.0 0.00 0.00 0.00 63 1010.9
20260507232659 60 330 3.0 8.0 0.00 0.00 0.00 62 1010.9
20260507232537 60 330 3.0 8.0 0.00 0.00 0.00 62 1010.9
20260507232456 61 330 5.0 8.0 0.00 0.00 0.00 62 1010.9
20260507232333 61 329 1.0 8.0 0.00 0.00 0.00 63 1010.9
20260507232253 61 339 3.0 8.0 0.00 0.00 0.00 61 1010.9
20260507232135 61 325 5.0 9.0 0.00 0.00 0.00 61 1010.9
20260507232032 61 330 3.0 9.0 0.00 0.00 0.00 60 1010.9
20260507231932 61 337 3.0 9.0 0.00 0.00 0.00 62 1010.9
20260507231831 61 335 6.0 9.0 0.00 0.00 0.00 62 1010.9
20260507231729 61 330 2.0 9.0 0.00 0.00 0.00 61 1010.9
20260507231659 61 332 4.0 9.0 0.00 0.00 0.00 61 1010.9
20260507231537 61 340 5.0 9.0 0.00 0.00 0.00 62 1010.9
20260507231438 61 322 4.0 9.0 0.00 0.00 0.00 62 1010.9
20260507231337 61 326 4.0 9.0 0.00 0.00 0.00 62 1010.8
20260507231236 61 333 6.0 9.0 0.00 0.00 0.00 62 1010.8
20260507231134 61 330 4.0 9.0 0.00 0.00 0.00 62 1010.8
20260507231033 61 330 4.0 9.0 0.00 0.00 0.00 62 1010.8
20260507230930 61 330 3.0 9.0 0.00 0.00 0.00 62 1010.8
20260507230849 61 330 4.0 9.0 0.00 0.00 0.00 62 1010.8
20260507230730 61 332 5.0 10.0 0.00 0.00 0.00 62 1010.8
20260507230628 61 329 3.0 11.0 0.00 0.00 0.00 62 1010.8
20260507230528 61 329 4.0 11.0 0.00 0.00 0.00 63 1010.8
20260507230430 61 328 3.0 11.0 0.00 0.00 0.00 63 1010.8
20260507230329 61 350 5.0 11.0 0.00 0.00 0.00 62 1010.8
20260507230238 61 330 3.0 11.0 0.00 0.00 0.00 62 1010.8
20260507230148 61 332 4.0 11.0 0.00 0.00 0.00 62 1010.8
20260507230028 61 328 6.0 11.0 0.00 0.00 0.00 62 1010.8
20260507225927 61 330 4.0 11.0 0.00 0.00 0.00 63 1010.8
20260507225827 61 330 5.0 11.0 0.00 0.00 0.00 62 1010.9
20260507225745 61 329 2.0 9.0 0.00 0.00 0.00 62 1010.9
20260507225704 61 343 2.0 9.0 0.00 0.00 0.00 62 1010.9
20260507225602 61 328 2.0 9.0 0.00 0.00 0.00 62 1010.9
20260507225500 61 325 4.0 9.0 0.00 0.00 0.00 62 1010.9
20260507225337 61 328 2.0 9.0 0.00 0.00 0.00 62 1010.9
20260507225234 61 329 4.0 9.0 0.00 0.00 0.00 63 1010.9
20260507225136 61 320 4.0 9.0 0.00 0.00 0.00 63 1010.9
20260507225054 61 326 5.0 9.0 0.00 0.00 0.00 63 1010.9
20260507224931 61 330 6.0 9.0 0.00 0.00 0.00 62 1010.9
20260507224829 61 330 5.0 8.0 0.00 0.00 0.00 62 1010.9
20260507224738 61 332 5.0 8.0 0.00 0.00 0.00 63 1010.9
20260507224648 61 320 4.0 8.0 0.00 0.00 0.00 62 1010.9
20260507224526 61 332 2.0 6.0 0.00 0.00 0.00 63 1010.9
20260507224424 61 330 1.0 7.0 0.00 0.00 0.00 62 1010.9
20260507224326 61 329 2.0 7.0 0.00 0.00 0.00 62 1010.8
20260507224225 61 328 3.0 7.0 0.00 0.00 0.00 62 1010.8
20260507224143 61 329 3.0 7.0 0.00 0.00 0.00 63 1010.8
20260507224042 61 326 5.0 7.0 0.00 0.00 0.00 63 1010.8
20260507223941 61 326 3.0 8.0 0.00 0.00 0.00 62 1010.8
20260507223858 61 330 1.0 8.0 0.00 0.00 0.00 62 1010.8
20260507223736 61 336 3.0 8.0 0.00 0.00 0.00 63 1010.8
20260507223634 61 330 6.0 8.0 0.00 0.00 0.00 62 1010.8
20260507223536 61 329 2.0 8.0 0.00 0.00 0.00 62 1010.8
20260507223435 61 339 1.0 8.0 0.00 0.00 0.00 61 1010.8
20260507223333 61 332 2.0 8.0 0.00 0.00 0.00 61 1010.8
20260507223251 61 330 4.0 8.0 0.00 0.00 0.00 61 1010.8
20260507223222 61 349 5.0 8.0 0.00 0.00 0.00 61 1010.8
20260507223037 61 328 3.0 8.0 0.00 0.00 0.00 61 1010.8
20260507222936 61 330 2.0 7.0 0.00 0.00 0.00 60 1010.8
20260507222836 61 329 4.0 7.0 0.00 0.00 0.00 61 1010.8
20260507222740 61 344 4.0 8.0 0.00 0.00 0.00 60 1010.8
20260507222659 61 342 3.0 8.0 0.00 0.00 0.00 61 1010.8
20260507222536 61 322 1.0 8.0 0.00 0.00 0.00 60 1010.8
20260507222435 61 332 3.0 11.0 0.00 0.00 0.00 60 1010.8
20260507222333 62 332 3.0 11.0 0.00 0.00 0.00 61 1010.8
20260507222251 61 330 4.0 11.0 0.00 0.00 0.00 62 1010.8
20260507222149 62 339 3.0 11.0 0.00 0.00 0.00 61 1010.8
20260507222025 62 328 4.0 11.0 0.00 0.00 0.00 61 1010.8
20260507221928 62 326 4.0 11.0 0.00 0.00 0.00 61 1010.8
20260507221827 62 328 3.0 11.0 0.00 0.00 0.00 62 1010.8
20260507221745 62 332 3.0 11.0 0.00 0.00 0.00 63 1010.8
20260507221654 62 330 5.0 11.0 0.00 0.00 0.00 63 1010.8
20260507221533 62 333 3.0 11.0 0.00 0.00 0.00 64 1010.8
20260507221431 62 330 3.0 11.0 0.00 0.00 0.00 63 1010.8
20260507221331 62 330 1.0 11.0 0.00 0.00 0.00 61 1010.7
20260507221228 62 329 2.0 11.0 0.00 0.00 0.00 62 1010.7
20260507221131 62 330 3.0 11.0 0.00 0.00 0.00 60 1010.7
20260507221029 62 330 4.0 11.0 0.00 0.00 0.00 60 1010.7
20260507220927 62 330 7.0 14.0 0.00 0.00 0.00 61 1010.7
20260507220825 62 330 7.0 14.0 0.00 0.00 0.00 62 1010.7
20260507220724 62 329 7.0 14.0 0.00 0.00 0.00 60 1010.7
20260507220643 62 328 6.0 14.0 0.00 0.00 0.00 59 1010.7
20260507220541 62 326 4.0 14.0 0.00 0.00 0.00 61 1010.7
20260507220443 62 325 4.0 14.0 0.00 0.00 0.00 61 1010.7
20260507220343 62 323 4.0 14.0 0.00 0.00 0.00 62 1010.7
20260507220224 62 328 7.0 14.0 0.00 0.00 0.00 62 1010.7
20260507220156 62 329 9.0 14.0 0.00 0.00 0.00 62 1010.7
20260507220031 62 330 5.0 14.0 0.00 0.00 0.00 61 1010.7
20260507215931 62 329 4.0 14.0 0.00 0.00 0.00 61 1010.7
20260507215830 62 326 6.0 14.0 0.00 0.00 0.00 60 1010.5
20260507215734 62 336 7.0 14.0 0.00 0.00 0.00 61 1010.5
20260507215632 62 349 6.0 14.0 0.00 0.00 0.00 61 1010.5
20260507215530 62 330 11.0 14.0 0.00 0.00 0.00 62 1010.5
20260507215428 62 328 4.0 14.0 0.00 0.00 0.00 62 1010.5
20260507215330 62 333 3.0 14.0 0.00 0.00 0.00 61 1010.5
20260507215229 62 325 3.0 14.0 0.00 0.00 0.00 61 1010.5
20260507215128 62 332 2.0 14.0 0.00 0.00 0.00 60 1010.5
20260507215031 62 326 0.0 14.0 0.00 0.00 0.00 59 1010.5
20260507214930 62 326 5.0 14.0 0.00 0.00 0.00 61 1010.5
20260507214829 62 325 7.0 14.0 0.00 0.00 0.00 61 1010.5
20260507214727 62 322 10.0 14.0 0.00 0.00 0.00 61 1010.5
20260507214657 62 328 9.0 14.0 0.00 0.00 0.00 61 1010.5
20260507214556 62 329 5.0 11.0 0.00 0.00 0.00 60 1010.5
20260507214434 62 330 4.0 11.0 0.00 0.00 0.00 61 1010.5
20260507214336 62 333 4.0 11.0 0.00 0.00 0.00 62 1010.7
20260507214237 62 330 6.0 11.0 0.00 0.00 0.00 63 1010.7
20260507214137 62 318 3.0 11.0 0.00 0.00 0.00 61 1010.7
20260507214034 62 320 4.0 11.0 0.00 0.00 0.00 61 1010.7
20260507213935 62 330 6.0 11.0 0.00 0.00 0.00 61 1010.7
20260507213854 62 329 6.0 11.0 0.00 0.00 0.00 62 1010.7
20260507213733 62 328 9.0 11.0 0.00 0.00 0.00 61 1010.7
20260507213635 62 330 5.0 11.0 0.00 0.00 0.00 63 1010.7
20260507213533 62 277 7.0 11.0 0.00 0.00 0.00 62 1010.7
20260507213432 62 42 2.0 9.0 0.00 0.00 0.00 62 1010.7
20260507213330 62 192 2.0 9.0 0.00 0.00 0.00 61 1010.7
20260507213238 62 330 5.0 9.0 0.00 0.00 0.00 61 1010.7
20260507213149 62 330 2.0 9.0 0.00 0.00 0.00 61 1010.7
20260507213026 62 112 2.0 9.0 0.00 0.00 0.00 62 1010.7
20260507212930 62 213 5.0 9.0 0.00 0.00 0.00 61 1010.7
20260507212848 62 330 5.0 9.0 0.00 0.00 0.00 61 1010.6
20260507212744 62 332 6.0 9.0 0.00 0.00 0.00 61 1010.6
20260507212703 62 332 7.0 9.0 0.00 0.00 0.00 62 1010.6
20260507212539 62 332 5.0 9.0 0.00 0.00 0.00 61 1010.6
20260507212429 62 330 3.0 8.0 0.00 0.00 0.00 61 1010.6
20260507212325 62 332 4.0 11.0 0.00 0.00 0.00 63 1010.6
20260507212242 62 332 4.0 11.0 0.00 0.00 0.00 63 1010.6
20260507212201 62 332 2.0 11.0 0.00 0.00 0.00 61 1010.6
20260507212058 62 318 3.0 11.0 0.00 0.00 0.00 61 1010.6
20260507211954 62 326 4.0 11.0 0.00 0.00 0.00 63 1010.6
20260507211850 62 329 3.0 11.0 0.00 0.00 0.00 62 1010.6
20260507211751 62 322 5.0 11.0 0.00 0.00 0.00 61 1010.6
20260507211700 62 336 4.0 11.0 0.00 0.00 0.00 62 1010.6
20260507211535 61 325 5.0 11.0 0.00 0.00 0.00 63 1010.6
20260507211431 61 326 8.0 13.0 0.00 0.00 0.00 63 1010.6
20260507211327 61 319 5.0 13.0 0.00 0.00 0.00 64 1010.7
20260507211246 61 333 7.0 13.0 0.00 0.00 0.00 62 1010.7
20260507211143 61 329 7.0 13.0 0.00 0.00 0.00 62 1010.7
20260507211041 61 330 7.0 13.0 0.00 0.00 0.00 65 1010.7
20260507210936 61 326 6.0 13.0 0.00 0.00 0.00 64 1010.7
20260507210833 61 328 4.0 13.0 0.00 0.00 0.00 64 1010.7
20260507210731 61 121 3.0 13.0 0.00 0.00 0.00 63 1010.7
20260507210629 61 330 5.0 13.0 0.00 0.00 0.00 65 1010.7
20260507210525 61 335 4.0 13.0 0.00 0.00 0.00 65 1010.7
20260507210443 61 330 5.0 12.0 0.00 0.00 0.00 63 1010.7
20260507210340 61 330 5.0 12.0 0.00 0.00 0.00 63 1010.7
20260507210300 61 330 6.0 12.0 0.00 0.00 0.00 64 1010.7
20260507210208 61 332 4.0 12.0 0.00 0.00 0.00 63 1010.7
20260507210043 61 330 4.0 12.0 0.00 0.00 0.00 63 1010.7
20260507205941 61 330 5.0 12.0 0.00 0.00 0.00 63 1010.7
20260507205836 61 330 8.0 12.0 0.00 0.00 0.00 63 1010.6
20260507205731 61 337 9.0 13.0 0.00 0.00 0.00 64 1010.6
20260507205629 61 332 4.0 13.0 0.00 0.00 0.00 62 1010.6
20260507205530 61 332 5.0 13.0 0.00 0.00 0.00 64 1010.6
20260507205426 61 325 5.0 13.0 0.00 0.00 0.00 64 1010.6
20260507205344 61 330 5.0 13.0 0.00 0.00 0.00 64 1010.6
20260507205241 61 330 8.0 13.0 0.00 0.00 0.00 65 1010.6
20260507205136 61 328 9.0 13.0 0.00 0.00 0.00 63 1010.6
20260507205035 61 337 8.0 13.0 0.00 0.00 0.00 62 1010.6
20260507204931 61 323 8.0 13.0 0.00 0.00 0.00 62 1010.6
20260507204833 61 339 8.0 12.0 0.00 0.00 0.00 62 1010.6
20260507204750 61 337 5.0 12.0 0.00 0.00 0.00 63 1010.6
20260507204720 61 328 2.0 12.0 0.00 0.00 0.00 65 1010.6
20260507204541 61 326 3.0 11.0 0.00 0.00 0.00 63 1010.6
20260507204440 61 330 4.0 11.0 0.00 0.00 0.00 63 1010.6
20260507204339 61 343 4.0 11.0 0.00 0.00 0.00 63 1010.7
20260507204237 61 319 5.0 11.0 0.00 0.00 0.00 63 1010.7
20260507204136 61 354 5.0 11.0 0.00 0.00 0.00 63 1010.7
20260507204054 61 330 4.0 11.0 0.00 0.00 0.00 64 1010.7
20260507203936 61 328 3.0 11.0 0.00 0.00 0.00 65 1010.7
20260507203839 61 322 6.0 11.0 0.00 0.00 0.00 65 1010.7
20260507203737 61 328 8.0 11.0 0.00 0.00 0.00 63 1010.7
20260507203635 61 326 6.0 11.0 0.00 0.00 0.00 65 1010.7
20260507203554 61 343 3.0 11.0 0.00 0.00 0.00 64 1010.7
20260507203430 61 330 3.0 11.0 0.00 0.00 0.00 64 1010.7
20260507203329 61 315 1.0 11.0 0.00 0.00 0.00 66 1010.7
20260507203228 61 330 5.0 11.0 0.00 0.00 0.00 65 1010.7
20260507203158 61 328 6.0 11.0 0.00 0.00 0.00 65 1010.7
20260507203101 61 330 6.0 11.0 0.00 0.00 0.00 66 1010.7
20260507202938 61 320 7.0 11.0 0.00 0.00 0.00 66 1010.7
20260507202837 61 325 7.0 10.0 0.00 0.00 0.00 65 1010.7
20260507202755 61 360 7.0 10.0 0.00 0.00 0.00 66 1010.7
20260507202632 61 328 4.0 8.0 0.00 0.00 0.00 67 1010.7
20260507202531 61 330 6.0 8.0 0.00 0.00 0.00 66 1010.7
20260507202431 61 349 4.0 9.0 0.00 0.00 0.00 65 1010.7
20260507202335 61 343 1.0 9.0 0.00 0.00 0.00 67 1010.7
20260507202234 61 337 2.0 9.0 0.00 0.00 0.00 68 1010.7
20260507202132 61 316 4.0 10.0 0.00 0.00 0.00 66 1010.7
20260507202031 61 330 4.0 10.0 0.00 0.00 0.00 66 1010.7
20260507201930 61 330 3.0 10.0 0.00 0.00 0.00 67 1010.7
20260507201828 61 330 3.0 10.0 0.00 0.00 0.00 68 1010.7
20260507201727 61 328 4.0 12.0 0.00 0.00 0.00 66 1010.7
20260507201659 61 326 6.0 12.0 0.00 0.00 0.00 66 1010.7
20260507201538 61 330 6.0 12.0 0.00 0.00 0.00 67 1010.7
20260507201436 61 322 7.0 12.0 0.00 0.00 0.00 66 1010.7
20260507201335 61 325 7.0 12.0 0.00 0.00 0.00 66 1010.4
20260507201233 61 330 5.0 12.0 0.00 0.00 0.00 66 1010.4
20260507201132 61 292 4.0 13.0 0.00 0.00 0.00 67 1010.4
20260507201030 61 330 5.0 13.0 0.00 0.00 0.00 65 1010.4
20260507200932 61 329 6.0 13.0 0.00 0.00 0.00 66 1010.4
20260507200830 61 330 5.0 13.0 0.00 0.00 0.00 65 1010.4
20260507200729 61 330 7.0 13.0 0.00 0.00 0.00 66 1010.4
20260507200627 61 332 4.0 13.0 0.00 0.00 0.00 65 1010.4
20260507200527 61 330 4.0 13.0 0.00 0.00 0.00 64 1010.4
20260507200426 61 294 8.0 13.0 0.00 0.00 0.00 63 1010.4
20260507200328 61 330 8.0 13.0 0.00 0.00 0.00 63 1010.4
20260507200238 62 329 7.0 16.0 0.00 0.00 0.00 65 1010.4
20260507200148 62 326 3.0 16.0 0.00 0.00 0.00 65 1010.4
20260507200044 62 330 6.0 16.0 0.00 0.00 0.00 64 1010.4
20260507195940 62 328 6.0 16.0 0.00 0.00 0.00 65 1010.4
20260507195839 62 326 2.0 16.0 0.00 0.00 0.00 66 1010.7
20260507195737 62 330 4.0 16.0 0.00 0.00 0.00 64 1010.7
20260507195635 62 333 9.0 16.0 0.00 0.00 0.00 63 1010.7
20260507195533 62 329 8.0 16.0 0.00 0.00 0.00 64 1010.7
20260507195436 62 329 9.0 16.0 0.00 0.00 0.00 67 1010.7
20260507195335 62 328 2.0 9.0 0.00 0.00 0.00 67 1010.7
20260507195234 62 323 3.0 9.0 0.00 0.00 0.00 66 1010.7
20260507195133 62 335 3.0 10.0 0.00 0.00 0.00 67 1010.7
20260507195032 61 326 5.0 12.0 0.00 0.00 0.00 67 1010.7
20260507194930 61 323 1.0 12.0 0.00 0.00 0.00 66 1010.7
20260507194833 61 330 4.0 12.0 0.00 0.00 0.00 66 1010.7
20260507194731 61 329 2.0 14.0 0.00 0.00 0.00 66 1010.7
20260507194702 61 329 1.0 14.0 0.00 0.00 0.00 66 1010.7
20260507194540 61 147 3.0 14.0 0.00 0.00 0.00 65 1010.7
20260507194439 61 49 5.0 14.0 0.00 0.00 0.00 64 1010.7
20260507194337 61 301 5.0 14.0 0.00 0.00 0.00 65 1010.6
20260507194235 61 326 9.0 14.0 0.00 0.00 0.00 63 1010.6
20260507194139 61 336 7.0 14.0 0.00 0.00 0.00 65 1010.6
20260507194037 61 337 6.0 14.0 0.00 0.00 0.00 65 1010.6
20260507193936 61 328 7.0 14.0 0.00 0.00 0.00 66 1010.6
20260507193835 61 330 0.0 12.0 0.00 0.00 0.00 65 1010.6
20260507193733 61 336 5.0 12.0 0.00 0.00 0.00 65 1010.6
20260507193631 61 340 5.0 12.0 0.00 0.00 0.00 63 1010.6
20260507193530 61 329 6.0 12.0 0.00 0.00 0.00 64 1010.6
20260507193432 61 326 9.0 12.0 0.00 0.00 0.00 65 1010.6
20260507193331 61 350 6.0 12.0 0.00 0.00 0.00 64 1010.6
20260507193249 61 326 8.0 12.0 0.00 0.00 0.00 66 1010.6
20260507193158 61 322 4.0 12.0 0.00 0.00 0.00 66 1010.6
20260507193034 61 344 5.0 12.0 0.00 0.00 0.00 64 1010.6
20260507192933 61 330 3.0 12.0 0.00 0.00 0.00 63 1010.6
20260507192833 61 346 3.0 12.0 0.00 0.00 0.00 62 1010.5
20260507192737 61 347 4.0 12.0 0.00 0.00 0.00 65 1010.5
20260507192655 61 347 7.0 12.0 0.00 0.00 0.00 63 1010.5
20260507192535 61 339 8.0 12.0 0.00 0.00 0.00 65 1010.5
20260507192434 61 322 6.0 12.0 0.00 0.00 0.00 64 1010.5
20260507192332 61 333 5.0 12.0 0.00 0.00 0.00 65 1010.5
20260507192230 61 346 6.0 12.0 0.00 0.00 0.00 64 1010.5
20260507192129 61 346 6.0 12.0 0.00 0.00 0.00 65 1010.5
20260507192032 61 208 7.0 12.0 0.00 0.00 0.00 65 1010.5
20260507191950 61 263 7.0 11.0 0.00 0.00 0.00 65 1010.5
20260507191827 61 330 8.0 11.0 0.00 0.00 0.00 66 1010.5
20260507191737 61 325 3.0 11.0 0.00 0.00 0.00 67 1010.5
20260507191647 61 328 2.0 14.0 0.00 0.00 0.00 65 1010.5
20260507191525 61 328 2.0 14.0 0.00 0.00 0.00 65 1010.5
20260507191424 60 328 3.0 14.0 0.00 0.00 0.00 66 1010.5
20260507191342 60 330 2.0 14.0 0.00 0.00 0.00 66 1010.5
20260507191224 60 326 7.0 14.0 0.00 0.00 0.00 64 1010.5
20260507191142 60 326 3.0 14.0 0.00 0.00 0.00 64 1010.5
20260507191041 60 360 5.0 14.0 0.00 0.00 0.00 65 1010.5
20260507190940 60 349 4.0 14.0 0.00 0.00 0.00 64 1010.5
20260507190838 60 268 6.0 14.0 0.00 0.00 0.00 65 1010.5
20260507190756 60 328 9.0 14.0 0.00 0.00 0.00 66 1010.5
20260507190654 60 319 4.0 13.0 0.00 0.00 0.00 63 1010.5
20260507190531 60 320 8.0 13.0 0.00 0.00 0.00 64 1010.5
20260507190433 60 325 9.0 13.0 0.00 0.00 0.00 65 1010.5
20260507190352 60 322 7.0 13.0 0.00 0.00 0.00 65 1010.5
20260507190229 60 329 7.0 12.0 0.00 0.00 0.00 67 1010.5
20260507190159 60 330 5.0 12.0 0.00 0.00 0.00 67 1010.5
20260507190057 60 339 3.0 12.0 0.00 0.00 0.00 67 1010.5
20260507185955 60 325 1.0 12.0 0.00 0.00 0.00 66 1010.5
20260507185831 60 325 4.0 12.0 0.00 0.00 0.00 67 1010.6
20260507185729 60 332 1.0 12.0 0.00 0.00 0.00 64 1010.6
20260507185633 60 337 3.0 12.0 0.00 0.00 0.00 64 1010.6
20260507185530 60 312 2.0 12.0 0.00 0.00 0.00 64 1010.6
20260507185428 60 329 4.0 12.0 0.00 0.00 0.00 64 1010.6
20260507185327 60 330 9.0 12.0 0.00 0.00 0.00 67 1010.6
20260507185226 60 328 7.0 12.0 0.00 0.00 0.00 67 1010.6
20260507185125 60 328 8.0 12.0 0.00 0.00 0.00 67 1010.6
20260507185043 60 330 7.0 12.0 0.00 0.00 0.00 65 1010.6
20260507184941 60 330 5.0 12.0 0.00 0.00 0.00 67 1010.6
20260507184842 60 330 4.0 12.0 0.00 0.00 0.00 66 1010.6
20260507184741 60 342 7.0 12.0 0.00 0.00 0.00 66 1010.6
20260507184712 60 329 8.0 12.0 0.00 0.00 0.00 68 1010.6
20260507184529 60 335 6.0 13.0 0.00 0.00 0.00 67 1010.6
20260507184426 60 329 6.0 13.0 0.00 0.00 0.00 67 1010.6
20260507184344 60 325 4.0 14.0 0.00 0.00 0.00 67 1010.6
20260507184242 60 325 4.0 14.0 0.00 0.00 0.00 68 1010.6
20260507184139 60 326 6.0 14.0 0.00 0.00 0.00 66 1010.6
20260507184038 60 328 6.0 14.0 0.00 0.00 0.00 67 1010.6
20260507183940 60 179 5.0 14.0 0.00 0.00 0.00 68 1010.6
20260507183838 60 326 5.0 14.0 0.00 0.00 0.00 68 1010.6
20260507183737 60 330 7.0 14.0 0.00 0.00 0.00 66 1010.6
20260507183635 60 329 5.0 14.0 0.00 0.00 0.00 69 1010.6
20260507183532 60 329 9.0 14.0 0.00 0.00 0.00 67 1010.6
20260507183431 60 329 2.0 11.0 0.00 0.00 0.00 67 1010.6
20260507183334 60 342 1.0 13.0 0.00 0.00 0.00 68 1010.6
20260507183232 60 330 1.0 13.0 0.00 0.00 0.00 69 1010.6
20260507183202 60 329 5.0 13.0 0.00 0.00 0.00 69 1010.6
20260507183038 60 349 6.0 13.0 0.00 0.00 0.00 66 1010.6
20260507182937 60 332 4.0 13.0 0.00 0.00 0.00 66 1010.6
20260507182836 60 330 7.0 13.0 0.00 0.00 0.00 67 1010.9
20260507182734 60 227 7.0 13.0 0.00 0.00 0.00 66 1010.9
20260507182631 60 298 8.0 13.0 0.00 0.00 0.00 67 1010.9
20260507182533 60 109 11.0 13.0 0.00 0.00 0.00 68 1010.9
20260507182430 60 14 7.0 12.0 0.00 0.00 0.00 69 1010.9
20260507182333 60 313 2.0 12.0 0.00 0.00 0.00 69 1010.9
20260507182252 60 359 5.0 12.0 0.00 0.00 0.00 69 1010.9
20260507182130 60 47 4.0 13.0 0.00 0.00 0.00 68 1010.9
20260507182029 60 61 4.0 13.0 0.00 0.00 0.00 70 1010.9
20260507181927 60 329 6.0 13.0 0.00 0.00 0.00 69 1010.9
20260507181826 60 330 6.0 13.0 0.00 0.00 0.00 68 1010.9
20260507181749 60 330 4.0 13.0 0.00 0.00 0.00 68 1010.9
20260507181658 60 289 4.0 13.0 0.00 0.00 0.00 68 1010.9
20260507181556 60 167 8.0 13.0 0.00 0.00 0.00 66 1010.9
20260507181433 60 311 7.0 13.0 0.00 0.00 0.00 69 1010.9
20260507181335 60 147 8.0 13.0 0.00 0.00 0.00 70 1010.9
20260507181233 60 326 8.0 13.0 0.00 0.00 0.00 69 1010.9
20260507181132 60 329 6.0 12.0 0.00 0.00 0.00 67 1010.9
20260507181031 60 343 4.0 12.0 0.00 0.00 0.00 67 1010.9
20260507180936 60 83 5.0 13.0 0.00 0.00 0.00 67 1010.9
20260507180853 60 335 6.0 13.0 0.00 0.00 0.00 66 1010.9
20260507180731 60 169 2.0 13.0 0.00 0.00 0.00 69 1010.9
20260507180630 60 323 5.0 13.0 0.00 0.00 0.00 70 1010.9
20260507180531 60 123 3.0 13.0 0.00 0.00 0.00 70 1010.9
20260507180450 60 267 7.0 13.0 0.00 0.00 0.00 70 1010.9
20260507180327 60 360 7.0 15.0 0.00 0.00 0.00 69 1010.9
20260507180245 60 344 8.0 15.0 0.00 0.00 0.00 69 1010.9
20260507180219 60 332 9.0 15.0 0.00 0.00 0.00 70 1010.9
20260507180034 60 350 2.0 15.0 0.00 0.00 0.00 71 1010.9
20260507175933 60 336 3.0 15.0 0.00 0.00 0.00 70 1010.9
20260507175832 60 329 4.0 15.0 0.00 0.00 0.00 69 1011.1
20260507175730 60 330 8.0 15.0 0.00 0.00 0.00 71 1011.1
20260507175628 60 329 6.0 15.0 0.00 0.00 0.00 69 1011.1
20260507175525 60 320 7.0 15.0 0.00 0.00 0.00 69 1011.1
20260507175428 60 330 4.0 14.0 0.00 0.00 0.00 69 1011.1
20260507175346 60 332 6.0 14.0 0.00 0.00 0.00 71 1011.1
20260507175307 60 326 8.0 14.0 0.00 0.00 0.00 70 1011.1
20260507175202 59 330 6.0 14.0 0.00 0.00 0.00 68 1011.1
20260507175039 59 71 5.0 14.0 0.00 0.00 0.00 68 1011.1
20260507174938 59 353 8.0 14.0 0.00 0.00 0.00 68 1011.1
20260507174836 59 329 10.0 16.0 0.00 0.00 0.00 69 1011.1
20260507174736 59 330 9.0 16.0 0.00 0.00 0.00 69 1011.1
20260507174713 59 82 10.0 16.0 0.00 0.00 0.00 69 1011.1
20260507174529 59 330 7.0 16.0 0.00 0.00 0.00 69 1011.1
20260507174447 59 182 5.0 16.0 0.00 0.00 0.00 68 1011.1
20260507174324 59 344 4.0 16.0 0.00 0.00 0.00 70 1011.3
20260507174224 59 162 6.0 16.0 0.00 0.00 0.00 71 1011.3
20260507174143 59 76 7.0 16.0 0.00 0.00 0.00 68 1011.3
20260507174042 59 18 10.0 16.0 0.00 0.00 0.00 70 1011.3
20260507173939 59 326 6.0 16.0 0.00 0.00 0.00 71 1011.3
20260507173842 59 328 9.0 12.0 0.00 0.00 0.00 70 1011.3
20260507173800 59 168 8.0 12.0 0.00 0.00 0.00 69 1011.3
20260507173636 59 347 2.0 11.0 0.00 0.00 0.00 69 1011.3
20260507173536 59 254 2.0 11.0 0.00 0.00 0.00 69 1011.3
20260507173454 59 222 4.0 11.0 0.00 0.00 0.00 69 1011.3
20260507173331 59 291 6.0 11.0 0.00 0.00 0.00 69 1011.3
20260507173240 59 175 7.0 11.0 0.00 0.00 0.00 69 1011.3
20260507173151 59 296 6.0 11.0 0.00 0.00 0.00 70 1011.3
20260507173027 59 116 3.0 11.0 0.00 0.00 0.00 72 1011.3
20260507172928 59 330 4.0 11.0 0.00 0.00 0.00 71 1011.3
20260507172847 59 333 7.0 12.0 0.00 0.00 0.00 70 1011.5
20260507172724 59 315 6.0 12.0 0.00 0.00 0.00 71 1011.5
20260507172642 59 330 3.0 12.0 0.00 0.00 0.00 71 1011.5
20260507172540 59 330 5.0 12.0 0.00 0.00 0.00 71 1011.5
20260507172439 59 330 3.0 12.0 0.00 0.00 0.00 71 1011.5
20260507172337 59 330 5.0 12.0 0.00 0.00 0.00 69 1011.5
20260507172255 59 130 6.0 12.0 0.00 0.00 0.00 70 1011.5
20260507172136 59 316 5.0 12.0 0.00 0.00 0.00 71 1011.5
20260507172055 59 244 8.0 12.0 0.00 0.00 0.00 72 1011.5
20260507171932 59 328 7.0 12.0 0.00 0.00 0.00 71 1011.5
20260507171829 58 330 3.0 12.0 0.00 0.00 0.00 71 1011.5
20260507171738 58 330 5.0 14.0 0.00 0.00 0.00 74 1011.5
20260507171648 58 353 8.0 14.0 0.00 0.00 0.00 72 1011.5
20260507171526 58 128 8.0 14.0 0.00 0.00 0.00 72 1011.5
20260507171446 58 330 7.0 14.0 0.00 0.00 0.00 72 1011.5
20260507171327 58 332 10.0 14.0 0.00 0.00 0.00 72 1011.3
20260507171245 58 217 7.0 14.0 0.00 0.00 0.00 72 1011.3
20260507171143 58 261 6.0 14.0 0.00 0.00 0.00 71 1011.3
20260507171041 58 27 8.0 14.0 0.00 0.00 0.00 71 1011.3
20260507170940 58 323 10.0 14.0 0.00 0.00 0.00 72 1011.3
20260507170857 58 295 10.0 14.0 0.00 0.00 0.00 73 1011.3
20260507170754 58 326 8.0 12.0 0.00 0.00 0.00 75 1011.3
20260507170632 58 326 5.0 12.0 0.00 0.00 0.00 75 1011.3
20260507170531 58 330 9.0 12.0 0.00 0.00 0.00 76 1011.3
20260507170433 58 329 6.0 12.0 0.00 0.00 0.00 77 1011.3
20260507170350 58 360 2.0 12.0 0.00 0.00 0.00 77 1011.3
20260507170240 58 332 2.0 16.0 0.00 0.00 0.00 76 1011.3
20260507170150 58 182 5.0 16.0 0.00 0.00 0.00 75 1011.3
20260507170026 58 337 8.0 16.0 0.00 0.00 0.00 74 1011.3
20260507165924 58 306 9.0 16.0 0.00 0.00 0.00 74 1011.3
20260507165842 58 330 8.0 16.0 0.00 0.00 0.00 75 1011.6
20260507165740 57 285 6.0 16.0 0.00 0.00 0.00 76 1011.6
20260507165642 57 174 5.0 16.0 0.00 0.00 0.00 76 1011.6
20260507165600 57 136 6.0 16.0 0.00 0.00 0.00 75 1011.6
20260507165458 57 329 8.0 16.0 0.00 0.00 0.00 77 1011.6
20260507165336 57 203 7.0 14.0 0.00 0.00 0.00 77 1011.6
20260507165233 57 272 6.0 14.0 0.00 0.00 0.00 78 1011.6
20260507165132 57 325 2.0 14.0 0.00 0.00 0.00 77 1011.6
20260507165030 57 343 6.0 16.0 0.00 0.00 0.00 76 1011.6
20260507164929 57 329 5.0 16.0 0.00 0.00 0.00 74 1011.6
20260507164831 57 296 11.0 19.0 0.00 0.00 0.00 76 1011.6
20260507164729 57 329 9.0 19.0 0.00 0.00 0.00 77 1011.6
20260507164659 57 332 7.0 19.0 0.00 0.00 0.00 77 1011.6
20260507164537 57 336 8.0 19.0 0.00 0.00 0.00 79 1011.6
20260507164437 57 333 9.0 19.0 0.00 0.00 0.00 78 1011.6
20260507164336 57 281 9.0 19.0 0.00 0.00 0.00 80 1011.6
20260507164235 57 268 8.0 19.0 0.00 0.00 0.00 79 1011.6
20260507164136 56 326 7.0 19.0 0.00 0.00 0.00 79 1011.6
20260507164035 56 346 9.0 19.0 0.00 0.00 0.00 78 1011.6
20260507163935 56 359 9.0 19.0 0.00 0.00 0.00 81 1011.6
20260507163833 57 329 5.0 17.0 0.00 0.00 0.00 82 1011.6
20260507163753 56 330 8.0 17.0 0.00 0.00 0.00 83 1011.6
20260507163630 56 330 5.0 17.0 0.00 0.00 0.00 82 1011.6
20260507163528 56 322 9.0 17.0 0.00 0.00 0.00 82 1011.6
20260507163433 56 333 13.0 17.0 0.00 0.00 0.00 84 1011.6
20260507163332 56 330 9.0 14.0 0.00 0.00 0.00 84 1011.6
20260507163233 56 234 10.0 14.0 0.00 0.00 0.00 83 1011.6
20260507163203 56 333 6.0 14.0 0.00 0.00 0.00 83 1011.6
20260507163041 56 313 5.0 14.0 0.00 0.00 0.00 83 1011.6
20260507162938 56 336 9.0 14.0 0.00 0.00 0.00 82 1011.6
20260507162837 56 38 9.0 13.0 0.00 0.00 0.00 83 1011.2
20260507162739 56 320 9.0 13.0 0.00 0.00 0.00 84 1011.2
20260507162658 56 158 8.0 13.0 0.00 0.00 0.00 84 1011.2
20260507162535 56 323 9.0 13.0 0.00 0.00 0.00 86 1011.2
20260507162454 56 328 5.0 13.0 0.00 0.00 0.00 87 1011.2
20260507162334 56 332 5.0 13.0 0.00 0.00 0.00 88 1011.2
20260507162233 56 126 4.0 13.0 0.00 0.00 0.00 89 1011.2
20260507162132 55 311 8.0 13.0 0.00 0.00 0.00 89 1011.2
20260507162051 55 306 8.0 13.0 0.00 0.00 0.00 89 1011.2
20260507161933 55 337 9.0 13.0 0.00 0.00 0.00 90 1011.2
20260507161831 55 330 7.0 13.0 0.00 0.00 0.00 90 1011.2
20260507161729 55 332 9.0 13.0 0.00 0.00 0.00 92 1011.2
20260507161700 55 329 8.0 16.0 0.00 0.00 0.00 92 1011.2
20260507161539 55 270 8.0 16.0 0.00 0.00 0.00 95 1011.2
20260507161436 55 299 8.0 16.0 0.00 0.00 0.00 96 1011.2
20260507161334 55 326 8.0 16.0 0.00 0.00 0.00 96 1011.3
20260507161238 55 92 8.0 16.0 0.00 0.00 0.00 97 1011.3
20260507161137 55 320 7.0 16.0 0.00 0.00 0.00 100 1011.3
20260507161036 55 178 8.0 16.0 0.00 0.00 0.00 100 1011.3
20260507160935 55 326 9.0 16.0 0.00 0.00 0.00 100 1011.3
20260507160833 55 227 10.0 16.0 0.00 0.00 0.00 100 1011.3
20260507160732 55 313 6.0 16.0 0.00 0.00 0.00 100 1011.3
20260507160630 55 82 8.0 18.0 0.00 0.00 0.00 100 1011.3
20260507160533 55 330 2.0 18.0 0.00 0.00 0.00 100 1011.3
20260507160432 55 191 5.0 18.0 0.00 0.00 0.00 100 1011.3
20260507160330 54 226 7.0 18.0 0.00 0.00 0.00 100 1011.3
20260507160229 54 99 9.0 18.0 0.00 0.00 0.00 100 1011.3
20260507160200 54 320 10.0 19.0 0.00 0.00 0.00 100 1011.3
20260507160037 54 257 10.0 19.0 0.00 0.00 0.00 100 1011.3
20260507155935 54 325 6.0 19.0 0.00 0.00 0.00 100 1011.3
20260507155837 54 332 10.0 20.0 0.00 0.00 0.00 100 1011.1
20260507155735 54 311 9.0 20.0 0.00 0.00 0.00 100 1011.1
20260507155634 53 295 7.0 20.0 0.00 0.00 0.00 100 1011.1
20260507155532 53 298 7.0 20.0 0.00 0.00 0.00 100 1011.1
20260507155430 53 253 10.0 20.0 0.00 0.00 0.00 100 1011.1
20260507155328 53 256 12.0 20.0 0.00 0.00 0.00 100 1011.1
20260507155226 53 136 7.0 21.0 0.00 0.00 0.00 100 1011.1
20260507155149 53 284 14.0 21.0 0.00 0.00 0.00 100 1011.1
20260507155029 53 320 15.0 21.0 0.00 0.00 0.00 100 1011.1
20260507154929 53 287 10.0 21.0 0.00 0.00 0.00 100 1011.1
20260507154827 53 176 12.0 21.0 0.00 0.00 0.00 100 1011.1
20260507154725 53 143 13.0 21.0 0.00 0.00 0.00 100 1011.1
20260507154658 53 319 11.0 21.0 0.00 0.00 0.00 100 1011.1
20260507154536 53 267 11.0 21.0 0.00 0.00 0.00 100 1011.1
20260507154439 53 319 14.0 21.0 0.00 0.00 0.00 100 1011.1
20260507154338 53 291 9.0 20.0 0.00 0.00 0.00 100 1011.2
20260507154236 53 272 13.0 20.0 0.00 0.00 0.00 100 1011.2
20260507154135 53 150 14.0 20.0 0.00 0.00 0.00 100 1011.2
20260507154033 53 323 11.0 20.0 0.00 0.00 0.00 100 1011.2
20260507153935 53 172 10.0 20.0 0.00 0.00 0.00 100 1011.2
20260507153834 53 272 13.0 20.0 0.00 0.00 0.00 100 1011.2
20260507153736 53 257 8.0 17.0 0.00 0.00 0.00 100 1011.2
20260507153655 53 320 5.0 17.0 0.00 0.00 0.00 100 1011.2
20260507153531 53 305 7.0 17.0 0.00 0.00 0.00 100 1011.2
20260507153450 53 205 7.0 17.0 0.00 0.00 0.00 100 1011.2
20260507153328 53 294 9.0 17.0 0.00 0.00 0.00 100 1011.2
20260507153237 53 305 10.0 17.0 0.00 0.00 0.00 100 1011.2
20260507153147 53 339 9.0 17.0 0.00 0.00 0.00 100 1011.2
20260507153024 53 329 7.0 17.0 0.00 0.00 0.00 100 1011.2
20260507152927 53 325 10.0 17.0 0.00 0.00 0.00 100 1011.2
20260507152826 53 304 11.0 16.0 0.00 0.00 0.00 100 1011.2
20260507152724 53 315 10.0 18.0 0.00 0.00 0.00 100 1011.2
20260507152643 53 306 11.0 18.0 0.00 0.00 0.00 100 1011.2
20260507152541 53 308 9.0 18.0 0.00 0.00 0.00 100 1011.2
20260507152440 53 217 10.0 18.0 0.00 0.00 0.00 100 1011.2
20260507152337 53 213 9.0 18.0 0.00 0.00 0.00 100 1011.2
20260507152240 52 329 8.0 18.0 0.00 0.00 0.00 100 1011.2
20260507152138 52 308 7.0 18.0 0.00 0.00 0.00 100 1011.2
20260507152036 52 320 11.0 18.0 0.00 0.00 0.00 100 1011.2
20260507151934 52 320 12.0 18.0 0.00 0.00 0.00 100 1011.2
20260507151833 52 315 5.0 18.0 0.00 0.00 0.00 100 1011.2
20260507151752 52 332 9.0 22.0 0.00 0.00 0.00 100 1011.2
20260507151721 52 328 9.0 22.0 0.00 0.00 0.00 100 1011.2
20260507151537 52 205 7.0 22.0 0.00 0.00 0.00 100 1011.2
20260507151440 52 299 7.0 22.0 0.00 0.00 0.00 100 1011.2
20260507151338 52 152 11.0 22.0 0.00 0.00 0.00 100 1011.2
20260507151300 52 312 8.0 22.0 0.00 0.00 0.00 100 1011.2
20260507151138 52 328 10.0 22.0 0.00 0.00 0.00 100 1011.2
20260507151056 52 322 12.0 22.0 0.00 0.00 0.00 100 1011.2
20260507150954 52 326 15.0 22.0 0.00 0.00 0.00 100 1011.2
20260507150831 52 329 9.0 17.0 0.00 0.00 0.00 100 1011.2
20260507150729 52 328 6.0 17.0 0.00 0.00 0.00 100 1011.2
20260507150632 52 299 4.0 17.0 0.00 0.00 0.00 100 1011.2
20260507150530 51 330 7.0 17.0 0.00 0.00 0.00 100 1011.2
20260507150427 51 336 9.0 17.0 0.00 0.00 0.00 100 1011.2
20260507150327 51 332 7.0 17.0 0.00 0.00 0.00 100 1011.2
20260507150237 51 332 11.0 17.0 0.00 0.00 0.00 100 1011.2
20260507150149 52 209 11.0 17.0 0.00 0.00 0.00 100 1011.2
20260507150025 51 289 12.0 16.0 0.00 0.00 0.00 100 1011.2
20260507145949 51 308 9.0 16.0 0.00 0.00 0.00 100 1011.2
20260507145826 51 306 12.0 19.0 0.00 0.00 0.00 100 1011.2
20260507145725 51 301 12.0 19.0 0.00 0.00 0.00 100 1011.2
20260507145624 51 313 6.0 19.0 0.00 0.00 0.00 100 1011.2
20260507145543 51 329 10.0 19.0 0.00 0.00 0.00 100 1011.2
20260507145440 51 298 11.0 19.0 0.00 0.00 0.00 100 1011.2
20260507145339 51 295 8.0 19.0 0.00 0.00 0.00 100 1011.2
20260507145241 51 316 8.0 19.0 0.00 0.00 0.00 100 1011.2
20260507145140 51 333 9.0 19.0 0.00 0.00 0.00 100 1011.2
20260507145037 51 246 11.0 19.0 0.00 0.00 0.00 100 1011.2
20260507144935 51 285 12.0 19.0 0.00 0.00 0.00 100 1011.2
20260507144834 51 240 13.0 19.0 0.00 0.00 0.00 100 1011.2
20260507144733 51 241 12.0 17.0 0.00 0.00 0.00 100 1011.2
20260507144702 51 278 12.0 16.0 0.00 0.00 0.00 100 1011.2
20260507144541 51 313 12.0 16.0 0.00 0.00 0.00 100 1011.2
20260507144443 51 288 12.0 15.0 0.00 0.00 0.00 100 1011.2
20260507144342 51 330 10.0 19.0 0.00 0.00 0.00 100 1011.1
20260507144241 51 220 8.0 20.0 0.00 0.00 0.00 100 1011.1
20260507144139 51 302 10.0 20.0 0.00 0.00 0.00 100 1011.1
20260507144038 51 294 9.0 20.0 0.00 0.00 0.00 100 1011.1
20260507143938 51 284 11.0 20.0 0.00 0.00 0.00 100 1011.1
20260507143857 51 309 8.0 20.0 0.00 0.00 0.00 100 1011.1
20260507143738 51 58 5.0 20.0 0.00 0.00 0.00 100 1011.1
20260507143637 51 332 7.0 20.0 0.00 0.00 0.00 100 1011.1
20260507143534 51 330 13.0 20.0 0.00 0.00 0.00 100 1011.1
20260507143433 51 236 15.0 20.0 0.00 0.00 0.00 100 1011.1
20260507143332 51 332 9.0 16.0 0.00 0.00 0.00 100 1011.1
20260507143251 51 289 9.0 16.0 0.00 0.00 0.00 100 1011.1
20260507143202 51 323 9.0 16.0 0.00 0.00 0.00 100 1011.1
20260507143039 51 333 10.0 16.0 0.00 0.00 0.00 100 1011.1
20260507142942 51 337 7.0 17.0 0.00 0.00 0.00 100 1011.1
20260507142841 51 330 9.0 17.0 0.00 0.00 0.00 100 1010.8
20260507142739 51 316 9.0 17.0 0.00 0.00 0.00 100 1010.8
20260507142637 51 330 7.0 17.0 0.00 0.00 0.00 100 1010.8
20260507142536 51 326 6.0 17.0 0.00 0.00 0.00 100 1010.8
20260507142454 51 320 5.0 17.0 0.00 0.00 0.00 100 1010.8
20260507142331 51 167 10.0 17.0 0.00 0.00 0.00 100 1010.8
20260507142234 51 328 10.0 17.0 0.00 0.00 0.00 100 1010.8
20260507142132 51 284 10.0 19.0 0.00 0.00 0.00 100 1010.8
20260507142032 51 295 7.0 19.0 0.00 0.00 0.00 100 1010.8
20260507141951 51 261 10.0 19.0 0.00 0.00 0.00 100 1010.8
20260507141828 51 296 9.0 19.0 0.00 0.00 0.00 100 1010.8
20260507141727 51 230 9.0 19.0 0.00 0.00 0.00 100 1010.8
20260507141656 51 333 9.0 19.0 0.00 0.00 0.00 100 1010.8
20260507141538 51 250 10.0 19.0 0.00 0.00 0.00 100 1010.8
20260507141435 51 322 12.0 19.0 0.00 0.00 0.00 100 1010.8
20260507141334 51 265 13.0 19.0 0.00 0.00 0.00 100 1010.7
20260507141233 51 318 8.0 19.0 0.00 0.00 0.00 100 1010.7
20260507141130 51 305 10.0 19.0 0.00 0.00 0.00 100 1010.7
20260507141029 51 248 10.0 19.0 0.00 0.00 0.00 100 1010.7
20260507140927 50 288 8.0 19.0 0.00 0.00 0.00 100 1010.7
20260507140830 50 291 9.0 19.0 0.00 0.00 0.00 100 1010.7
20260507140729 50 243 8.0 19.0 0.00 0.00 0.00 100 1010.7
20260507140628 50 333 9.0 19.0 0.00 0.00 0.00 100 1010.7
20260507140530 50 236 10.0 19.0 0.00 0.00 0.00 100 1010.7
20260507140428 50 193 13.0 19.0 0.00 0.00 0.00 100 1010.7
20260507140325 51 328 14.0 20.0 0.00 0.00 0.00 100 1010.7
20260507140227 50 301 7.0 20.0 0.00 0.00 0.00 100 1010.7
20260507140158 50 328 8.0 21.0 0.00 0.00 0.00 100 1010.7
20260507140038 50 270 12.0 21.0 0.00 0.00 0.00 100 1010.7
20260507135938 50 210 12.0 21.0 0.00 0.00 0.00 100 1010.7
20260507135836 51 326 12.0 21.0 0.00 0.00 0.00 100 1010.6
20260507135735 50 263 12.0 21.0 0.00 0.00 0.00 100 1010.6
20260507135632 51 224 11.0 21.0 0.00 0.00 0.00 100 1010.6
20260507135551 51 254 14.0 21.0 0.00 0.00 0.00 100 1010.6
20260507135432 51 220 15.0 21.0 0.00 0.00 0.00 100 1010.6
20260507135330 51 248 14.0 21.0 0.00 0.00 0.00 100 1010.6
20260507135232 51 282 9.0 21.0 0.00 0.00 0.00 100 1010.6
20260507135130 51 288 12.0 20.0 0.00 0.00 0.00 100 1010.6
20260507135029 51 295 13.0 20.0 0.00 0.00 0.00 100 1010.6
20260507134926 51 285 11.0 20.0 0.00 0.00 0.00 100 1010.6
20260507134825 51 304 14.0 20.0 0.00 0.00 0.00 100 1010.6
20260507134736 51 326 10.0 19.0 0.00 0.00 0.00 100 1010.6
20260507134646 51 333 11.0 19.0 0.00 0.00 0.00 100 1010.6
20260507134524 51 284 11.0 19.0 0.00 0.00 0.00 100 1010.6
20260507134442 51 301 10.0 19.0 0.00 0.00 0.00 100 1010.6
20260507134341 51 80 13.0 19.0 0.00 0.00 0.00 100 1010.2
20260507134238 51 275 10.0 17.0 0.00 0.00 0.00 100 1010.2
20260507134138 51 24 9.0 17.0 0.00 0.00 0.00 100 1010.2
20260507134056 51 330 12.0 17.0 0.00 0.00 0.00 100 1010.2
20260507133938 51 301 13.0 17.0 0.00 0.00 0.00 100 1010.2
20260507133836 51 329 11.0 17.0 0.00 0.00 0.00 100 1010.2
20260507133736 51 114 11.0 17.0 0.00 0.00 0.00 100 1010.2
20260507133654 51 329 11.0 19.0 0.00 0.00 0.00 100 1010.2
20260507133532 51 309 11.0 20.0 0.00 0.00 0.00 100 1010.2
20260507133432 51 306 14.0 20.0 0.00 0.00 0.00 100 1010.2
20260507133350 51 312 13.0 20.0 0.00 0.00 0.00 100 1010.2
20260507133232 51 248 11.0 20.0 0.00 0.00 0.00 100 1010.2
20260507133202 51 136 8.0 20.0 0.00 0.00 0.00 100 1010.2
20260507133039 51 213 10.0 20.0 0.00 0.00 0.00 100 1010.2
20260507132938 51 330 12.0 20.0 0.00 0.00 0.00 100 1010.2
20260507132837 51 323 13.0 20.0 0.00 0.00 0.00 100 1010.1
20260507132735 51 332 16.0 20.0 0.00 0.00 0.00 100 1010.1
20260507132635 51 312 14.0 20.0 0.00 0.00 0.00 100 1010.1
20260507132537 51 289 11.0 20.0 0.00 0.00 0.00 100 1010.1
20260507132435 51 308 12.0 20.0 0.00 0.00 0.00 100 1010.1
20260507132333 51 305 17.0 20.0 0.00 0.00 0.00 100 1010.1
20260507132232 51 328 12.0 20.0 0.00 0.00 0.00 100 1010.1
20260507132130 51 318 14.0 19.0 0.00 0.00 0.00 100 1010.1
20260507132029 51 302 13.0 19.0 0.00 0.00 0.00 100 1010.1
20260507131947 51 294 12.0 19.0 0.00 0.00 0.00 100 1010.1
20260507131831 51 299 11.0 19.0 0.00 0.00 0.00 100 1010.1
20260507131729 51 312 14.0 19.0 0.00 0.00 0.00 100 1010.1
20260507131659 51 326 14.0 19.0 0.00 0.00 0.00 100 1010.1
20260507131537 51 335 14.0 19.0 0.00 0.00 0.00 100 1010.1
20260507131434 51 251 12.0 19.0 0.00 0.00 0.00 100 1010.1
20260507131332 51 313 11.0 19.0 0.00 0.00 0.00 100 1009.9
20260507131231 51 305 12.0 19.0 0.00 0.00 0.00 100 1009.9
20260507131149 51 305 8.0 19.0 0.00 0.00 0.00 100 1009.9
20260507131034 51 315 11.0 19.0 0.00 0.00 0.00 100 1009.9
20260507130952 51 323 11.0 19.0 0.00 0.00 0.00 100 1009.9
20260507130830 51 304 11.0 19.0 0.00 0.00 0.00 100 1009.9
20260507130728 51 329 11.0 19.0 0.00 0.00 0.00 100 1009.9
20260507130647 51 284 13.0 19.0 0.00 0.00 0.00 100 1009.9
20260507130545 51 356 13.0 19.0 0.00 0.00 0.00 100 1009.9
20260507130503 51 274 13.0 19.0 0.00 0.00 0.00 100 1009.9
20260507130340 51 280 13.0 19.0 0.00 0.00 0.00 100 1009.9
20260507130237 51 254 12.0 19.0 0.00 0.00 0.00 100 1009.9
20260507130147 51 329 14.0 19.0 0.00 0.00 0.00 100 1009.9
20260507130025 51 325 16.0 20.0 0.00 0.00 0.00 100 1009.9
20260507125947 51 328 12.0 20.0 0.00 0.00 0.00 100 1009.9
20260507125825 51 332 11.0 20.0 0.00 0.00 0.00 100 1010.1
20260507125724 50 315 11.0 20.0 0.00 0.00 0.00 100 1010.1
20260507125643 51 332 10.0 20.0 0.00 0.00 0.00 100 1010.1
20260507125541 50 332 12.0 20.0 0.00 0.00 0.00 100 1010.1
20260507125443 50 330 13.0 20.0 0.00 0.00 0.00 100 1010.1
20260507125342 50 319 12.0 20.0 0.00 0.00 0.00 100 1010.1
20260507125300 50 328 15.0 20.0 0.00 0.00 0.00 100 1010.1
20260507125158 51 329 17.0 20.0 0.00 0.00 0.00 100 1010.1
20260507125055 50 237 11.0 20.0 0.00 0.00 0.00 100 1010.1
20260507124933 50 315 12.0 20.0 0.00 0.00 0.00 100 1010.1
20260507124831 51 287 13.0 20.0 0.00 0.00 0.00 100 1010.1
20260507124741 51 315 12.0 20.0 0.00 0.00 0.00 100 1010.1
20260507124651 51 319 12.0 20.0 0.00 0.00 0.00 100 1010.1
20260507124534 51 278 15.0 20.0 0.00 0.00 0.00 100 1010.1
20260507124433 51 328 15.0 20.0 0.00 0.00 0.00 100 1010.1
20260507124332 51 313 11.0 19.0 0.00 0.00 0.00 100 1009.7
20260507124230 51 316 13.0 19.0 0.00 0.00 0.00 100 1009.7
20260507124132 51 319 14.0 19.0 0.00 0.00 0.00 100 1009.7
20260507124029 51 291 12.0 19.0 0.00 0.00 0.00 100 1009.7